Time,TemperatureF,DewpointF,PressureIn,WindDirection,WindDirectionDegrees,WindSpeedMPH,WindSpeedGustMPH,Humidity,HourlyPrecipIn,Conditions,Clouds,dailyrainin,SoftwareType,DateUTC
2013-02-05 00:00:00,15.1,8.6,29.58,NW,315,0.7,0.7,75,0.00,,,0.00,WUHU216HW,2013-02-05 05:00:00,
2013-02-05 00:05:00,15.1,8.6,29.58,NNW,338,0.4,0.7,75,0.00,,,0.00,WUHU216HW,2013-02-05 05:05:00,
2013-02-05 00:06:00,15.1,8.6,29.59,NNW,338,0.0,0.7,75,0.00,,,0.00,WUHU216HW,2013-02-05 05:06:00,
2013-02-05 00:10:00,15.1,8.6,29.58,NW,315,0.2,0.4,75,0.00,,,0.00,WUHU216HW,2013-02-05 05:10:00,
2013-02-05 00:11:00,15.1,8.6,29.59,NW,315,0.4,0.4,75,0.00,,,0.00,WUHU216HW,2013-02-05 05:11:00,
2013-02-05 00:15:00,15.1,8.6,29.58,NNW,338,0.0,0.4,75,0.00,,,0.00,WUHU216HW,2013-02-05 05:15:00,
2013-02-05 00:16:00,15.1,8.6,29.58,NNW,338,0.0,0.4,75,0.00,,,0.00,WUHU216HW,2013-02-05 05:16:00,
2013-02-05 00:20:00,15.1,8.6,29.58,NNW,338,0.0,0.4,75,0.00,,,0.00,WUHU216HW,2013-02-05 05:20:00,
2013-02-05 00:21:00,15.1,8.6,29.59,NNW,338,0.0,0.2,75,0.00,,,0.00,WUHU216HW,2013-02-05 05:21:00,
2013-02-05 00:25:00,15.1,8.6,29.59,NNW,338,0.0,0.0,75,0.00,,,0.00,WUHU216HW,2013-02-05 05:25:00,
2013-02-05 00:26:00,15.1,8.6,29.58,NNW,338,0.0,0.0,75,0.00,,,0.00,WUHU216HW,2013-02-05 05:26:00,
2013-02-05 00:30:00,15.1,8.6,29.58,NNW,338,0.0,0.0,75,0.00,,,0.00,WUHU216HW,2013-02-05 05:30:00,
2013-02-05 00:31:00,15.1,8.6,29.58,NNW,338,0.0,0.0,75,0.00,,,0.00,WUHU216HW,2013-02-05 05:31:00,
2013-02-05 00:35:00,15.1,8.6,29.58,NNW,338,0.0,0.0,75,0.00,,,0.00,WUHU216HW,2013-02-05 05:35:00,
2013-02-05 00:36:00,15.1,8.6,29.58,NNW,338,0.0,0.0,75,0.00,,,0.00,WUHU216HW,2013-02-05 05:36:00,
2013-02-05 00:40:00,15.3,8.7,29.58,NNW,338,0.0,0.0,75,0.00,,,0.00,WUHU216HW,2013-02-05 05:40:00,
2013-02-05 00:41:00,15.3,8.7,29.58,NNW,338,0.0,0.0,75,0.00,,,0.00,WUHU216HW,2013-02-05 05:41:00,
2013-02-05 00:45:00,15.5,8.9,29.59,NNW,338,0.2,0.4,75,0.00,,,0.00,WUHU216HW,2013-02-05 05:45:00,
2013-02-05 00:46:00,15.3,8.7,29.59,North,0,0.4,0.4,75,0.00,,,0.00,WUHU216HW,2013-02-05 05:46:00,
2013-02-05 00:51:00,15.5,9.3,29.58,NNW,338,0.4,1.1,76,0.00,,,0.00,WUHU216HW,2013-02-05 05:51:00,
2013-02-05 00:56:00,15.5,9.3,29.58,NNW,338,0.4,1.1,76,0.00,,,0.00,WUHU216HW,2013-02-05 05:56:00,
2013-02-05 01:01:00,15.7,9.4,29.59,NNW,338,0.0,0.9,76,0.00,,,0.00,WUHU216HW,2013-02-05 06:01:00,
2013-02-05 01:06:00,15.7,9.4,29.59,NNW,338,0.0,0.9,76,0.00,,,0.00,WUHU216HW,2013-02-05 06:06:00,
2013-02-05 01:07:00,15.7,9.4,29.58,NNW,338,0.0,0.9,76,0.00,,,0.00,WUHU216HW,2013-02-05 06:07:00,
2013-02-05 01:11:00,15.8,9.3,29.59,North,0,0.0,0.9,75,0.00,,,0.00,WUHU216HW,2013-02-05 06:11:00,
2013-02-05 01:12:00,15.8,9.3,29.59,North,0,0.0,0.9,75,0.00,,,0.00,WUHU216HW,2013-02-05 06:12:00,
2013-02-05 01:16:00,15.8,9.3,29.59,North,0,0.4,0.4,75,0.00,,,0.00,WUHU216HW,2013-02-05 06:16:00,
2013-02-05 01:17:00,15.8,9.3,29.59,North,0,0.0,0.4,75,0.00,,,0.00,WUHU216HW,2013-02-05 06:17:00,
2013-02-05 01:21:00,15.8,9.3,29.59,NNW,338,0.0,0.4,75,0.00,,,0.00,WUHU216HW,2013-02-05 06:21:00,
2013-02-05 01:22:00,15.8,9.3,29.59,North,0,0.0,0.4,75,0.00,,,0.00,WUHU216HW,2013-02-05 06:22:00,
2013-02-05 01:26:00,15.8,9.3,29.59,NE,45,0.2,0.4,75,0.00,,,0.00,WUHU216HW,2013-02-05 06:26:00,
2013-02-05 01:27:00,15.8,9.3,29.59,ENE,68,0.0,0.4,75,0.00,,,0.00,WUHU216HW,2013-02-05 06:27:00,
2013-02-05 01:28:00,15.8,9.3,29.59,ENE,68,0.0,0.4,75,0.00,,,0.00,WUHU216HW,2013-02-05 06:28:00,
2013-02-05 01:31:00,16.0,9.5,29.59,ESE,113,0.4,0.9,75,0.00,,,0.00,WUHU216HW,2013-02-05 06:31:00,
2013-02-05 01:32:00,16.0,9.5,29.59,ESE,113,0.9,0.9,75,0.00,,,0.00,WUHU216HW,2013-02-05 06:32:00,
2013-02-05 01:33:00,16.0,9.5,29.59,ESE,113,0.9,0.9,75,0.00,,,0.00,WUHU216HW,2013-02-05 06:33:00,
2013-02-05 01:37:00,16.0,9.5,29.58,ENE,68,0.4,0.9,75,0.00,,,0.00,WUHU216HW,2013-02-05 06:37:00,
2013-02-05 01:38:00,16.0,9.5,29.58,East,90,0.4,0.9,75,0.00,,,0.00,WUHU216HW,2013-02-05 06:38:00,
2013-02-05 01:42:00,16.0,9.5,29.59,NNE,23,0.4,0.4,75,0.00,,,0.00,WUHU216HW,2013-02-05 06:42:00,
2013-02-05 01:43:00,16.0,9.5,29.59,North,0,1.1,1.1,75,0.00,,,0.00,WUHU216HW,2013-02-05 06:43:00,
2013-02-05 01:47:00,16.0,9.7,29.59,North,0,1.3,1.6,76,0.00,,,0.00,WUHU216HW,2013-02-05 06:47:00,
2013-02-05 01:48:00,16.0,9.7,29.59,North,0,1.8,1.8,76,0.00,,,0.00,WUHU216HW,2013-02-05 06:48:00,
2013-02-05 01:52:00,16.2,9.9,29.58,NNE,23,0.9,1.8,76,0.00,,,0.00,WUHU216HW,2013-02-05 06:52:00,
2013-02-05 01:53:00,16.2,9.9,29.58,North,0,0.7,1.8,76,0.00,,,0.00,WUHU216HW,2013-02-05 06:53:00,
2013-02-05 01:54:00,16.2,9.9,29.59,North,0,0.4,1.8,76,0.00,,,0.00,WUHU216HW,2013-02-05 06:54:00,
2013-02-05 01:57:00,16.2,9.9,29.59,NW,315,0.4,2.9,76,0.00,,,0.00,WUHU216HW,2013-02-05 06:57:00,
2013-02-05 01:59:00,16.2,9.9,29.59,NW,315,0.0,2.9,76,0.00,,,0.00,WUHU216HW,2013-02-05 06:59:00,
2013-02-05 02:02:00,16.2,9.9,29.59,North,0,0.2,2.9,76,0.00,,,0.00,WUHU216HW,2013-02-05 07:02:00,
2013-02-05 02:04:00,16.2,9.9,29.59,North,0,0.0,2.9,76,0.00,,,0.00,WUHU216HW,2013-02-05 07:04:00,
2013-02-05 02:07:00,16.2,9.9,29.59,North,0,0.0,0.2,76,0.00,,,0.00,WUHU216HW,2013-02-05 07:07:00,
2013-02-05 02:08:00,16.2,9.9,29.59,NW,315,0.4,0.4,76,0.00,,,0.00,WUHU216HW,2013-02-05 07:08:00,
2013-02-05 02:09:00,16.2,9.9,29.59,NW,315,0.4,0.4,76,0.00,,,0.00,WUHU216HW,2013-02-05 07:09:00,
2013-02-05 02:13:00,16.2,9.9,29.59,NW,315,0.4,0.4,76,0.00,,,0.00,WUHU216HW,2013-02-05 07:13:00,
2013-02-05 02:14:00,16.2,9.9,29.59,NW,315,0.0,0.4,76,0.00,,,0.00,WUHU216HW,2013-02-05 07:14:00,
2013-02-05 02:15:00,16.2,9.9,29.59,NW,315,0.0,0.4,76,0.00,,,0.00,WUHU216HW,2013-02-05 07:15:00,
2013-02-05 02:18:00,16.2,9.9,29.59,NW,315,0.0,0.4,76,0.00,,,0.00,WUHU216HW,2013-02-05 07:18:00,
2013-02-05 02:20:00,16.2,9.9,29.59,West,270,0.0,0.4,76,0.00,,,0.00,WUHU216HW,2013-02-05 07:20:00,
2013-02-05 02:23:00,16.2,9.9,29.59,SSW,203,0.4,0.4,76,0.00,,,0.00,WUHU216HW,2013-02-05 07:23:00,
2013-02-05 02:25:00,16.2,9.9,29.59,SSW,203,0.0,0.4,76,0.00,,,0.00,WUHU216HW,2013-02-05 07:25:00,
2013-02-05 02:28:00,16.2,9.9,29.59,SW,225,0.0,0.4,76,0.00,,,0.00,WUHU216HW,2013-02-05 07:28:00,
2013-02-05 02:30:00,16.2,9.9,29.59,WSW,248,0.0,0.4,76,0.00,,,0.00,WUHU216HW,2013-02-05 07:30:00,
2013-02-05 02:33:00,16.2,9.9,29.59,WNW,293,0.0,0.2,76,0.00,,,0.00,WUHU216HW,2013-02-05 07:33:00,
2013-02-05 02:35:00,16.2,9.9,29.59,NW,315,0.0,0.2,76,0.00,,,0.00,WUHU216HW,2013-02-05 07:35:00,
2013-02-05 02:38:00,16.2,9.9,29.59,NNW,338,0.0,0.4,76,0.00,,,0.00,WUHU216HW,2013-02-05 07:38:00,
2013-02-05 02:40:00,16.2,9.9,29.59,North,0,1.8,1.8,76,0.00,,,0.00,WUHU216HW,2013-02-05 07:40:00,
2013-02-05 02:43:00,16.2,9.9,29.59,NNW,338,0.7,2.0,76,0.00,,,0.00,WUHU216HW,2013-02-05 07:43:00,
2013-02-05 02:45:00,16.2,10.3,29.59,NNW,338,1.3,2.0,77,0.00,,,0.00,WUHU216HW,2013-02-05 07:45:00,
2013-02-05 02:48:00,16.4,10.4,29.59,North,0,1.1,2.5,77,0.00,,,0.00,WUHU216HW,2013-02-05 07:48:00,
2013-02-05 02:50:00,16.4,10.4,29.58,NNW,338,0.9,2.5,77,0.00,,,0.00,WUHU216HW,2013-02-05 07:50:00,
2013-02-05 02:51:00,16.4,10.4,29.58,NNW,338,0.9,2.5,77,0.00,,,0.00,WUHU216HW,2013-02-05 07:51:00,
2013-02-05 02:53:00,16.4,10.4,29.58,North,0,1.1,2.5,77,0.00,,,0.00,WUHU216HW,2013-02-05 07:53:00,
2013-02-05 02:55:00,16.4,10.4,29.58,North,0,0.2,2.5,77,0.00,,,0.00,WUHU216HW,2013-02-05 07:55:00,
2013-02-05 02:56:00,16.4,10.4,29.58,NNW,338,2.0,2.0,77,0.00,,,0.00,WUHU216HW,2013-02-05 07:56:00,
2013-02-05 02:58:00,16.4,10.4,29.58,North,0,1.8,2.0,77,0.00,,,0.00,WUHU216HW,2013-02-05 07:58:00,
2013-02-05 02:59:00,16.4,10.4,29.58,North,0,1.8,2.0,77,0.00,,,0.00,WUHU216HW,2013-02-05 07:59:00,
2013-02-05 03:00:00,16.4,10.4,29.58,North,0,2.2,2.2,77,0.00,,,0.00,WUHU216HW,2013-02-05 08:00:00,
2013-02-05 03:01:00,16.4,10.4,29.58,NNW,338,1.1,2.2,77,0.00,,,0.00,WUHU216HW,2013-02-05 08:01:00,
2013-02-05 03:04:00,16.4,10.4,29.58,North,0,0.4,2.2,77,0.00,,,0.00,WUHU216HW,2013-02-05 08:04:00,
2013-02-05 03:05:00,16.4,10.4,29.58,North,0,1.3,2.2,77,0.00,,,0.00,WUHU216HW,2013-02-05 08:05:00,
2013-02-05 03:06:00,16.4,10.4,29.58,North,0,0.7,2.2,77,0.00,,,0.00,WUHU216HW,2013-02-05 08:06:00,
2013-02-05 03:09:00,16.4,10.4,29.58,North,0,0.2,2.2,77,0.00,,,0.00,WUHU216HW,2013-02-05 08:09:00,
2013-02-05 03:10:00,16.4,10.4,29.58,North,0,0.4,1.3,77,0.00,,,0.00,WUHU216HW,2013-02-05 08:10:00,
2013-02-05 03:11:00,16.4,10.1,29.58,North,0,0.7,1.3,76,0.00,,,0.00,WUHU216HW,2013-02-05 08:11:00,
2013-02-05 03:14:00,16.4,10.4,29.58,North,0,0.7,1.3,77,0.00,,,0.00,WUHU216HW,2013-02-05 08:14:00,
2013-02-05 03:15:00,16.4,10.4,29.58,North,0,1.3,1.3,77,0.00,,,0.00,WUHU216HW,2013-02-05 08:15:00,
2013-02-05 03:16:00,16.4,10.4,29.58,North,0,1.3,1.3,77,0.00,,,0.00,WUHU216HW,2013-02-05 08:16:00,
2013-02-05 03:19:00,16.4,10.4,29.58,North,0,0.9,1.3,77,0.00,,,0.00,WUHU216HW,2013-02-05 08:19:00,
2013-02-05 03:20:00,16.4,10.4,29.58,North,0,0.7,1.3,77,0.00,,,0.00,WUHU216HW,2013-02-05 08:20:00,
2013-02-05 03:21:00,16.4,10.4,29.58,NNE,23,1.8,1.8,77,0.00,,,0.00,WUHU216HW,2013-02-05 08:21:00,
2013-02-05 03:24:00,16.4,10.4,29.58,North,0,0.2,1.8,77,0.00,,,0.00,WUHU216HW,2013-02-05 08:24:00,
2013-02-05 03:25:00,16.4,10.4,29.58,North,0,0.4,1.8,77,0.00,,,0.00,WUHU216HW,2013-02-05 08:25:00,
2013-02-05 03:26:00,16.4,10.4,29.59,NNW,338,0.4,1.8,77,0.00,,,0.00,WUHU216HW,2013-02-05 08:26:00,
2013-02-05 03:29:00,16.4,10.4,29.58,NE,45,0.9,1.8,77,0.00,,,0.00,WUHU216HW,2013-02-05 08:29:00,
2013-02-05 03:30:00,16.4,10.4,29.58,NNE,23,1.1,1.8,77,0.00,,,0.00,WUHU216HW,2013-02-05 08:30:00,
2013-02-05 03:31:00,16.4,10.4,29.58,North,0,0.4,1.1,77,0.00,,,0.00,WUHU216HW,2013-02-05 08:31:00,
2013-02-05 03:34:00,16.2,10.3,29.58,North,0,0.9,1.1,77,0.00,,,0.00,WUHU216HW,2013-02-05 08:34:00,
2013-02-05 03:35:00,16.2,10.3,29.58,NNE,23,0.4,1.1,77,0.00,,,0.00,WUHU216HW,2013-02-05 08:35:00,
2013-02-05 03:36:00,16.2,10.3,29.58,NNE,23,0.4,1.1,77,0.00,,,0.00,WUHU216HW,2013-02-05 08:36:00,
2013-02-05 03:37:00,16.2,10.3,29.58,North,0,1.1,1.1,77,0.00,,,0.00,WUHU216HW,2013-02-05 08:37:00,
2013-02-05 03:40:00,16.2,10.3,29.58,NNW,338,0.4,1.1,77,0.00,,,0.00,WUHU216HW,2013-02-05 08:40:00,
2013-02-05 03:41:00,16.2,10.3,29.58,North,0,0.2,1.1,77,0.00,,,0.00,WUHU216HW,2013-02-05 08:41:00,
2013-02-05 03:42:00,16.2,10.3,29.58,North,0,0.0,1.1,77,0.00,,,0.00,WUHU216HW,2013-02-05 08:42:00,
2013-02-05 03:45:00,16.2,10.3,29.58,North,0,0.9,1.1,77,0.00,,,0.00,WUHU216HW,2013-02-05 08:45:00,
2013-02-05 03:46:00,16.2,10.3,29.58,North,0,0.0,1.1,77,0.00,,,0.00,WUHU216HW,2013-02-05 08:46:00,
2013-02-05 03:48:00,16.2,10.3,29.58,North,0,0.0,1.1,77,0.00,,,0.00,WUHU216HW,2013-02-05 08:48:00,
2013-02-05 03:50:00,16.2,10.3,29.58,North,0,0.0,1.1,77,0.00,,,0.00,WUHU216HW,2013-02-05 08:50:00,
2013-02-05 03:51:00,16.2,10.3,29.58,North,0,0.0,1.1,77,0.00,,,0.00,WUHU216HW,2013-02-05 08:51:00,
2013-02-05 03:53:00,16.2,9.9,29.58,North,0,0.0,1.1,76,0.00,,,0.00,WUHU216HW,2013-02-05 08:53:00,
2013-02-05 03:55:00,16.2,9.9,29.58,North,0,0.0,1.1,76,0.00,,,0.00,WUHU216HW,2013-02-05 08:55:00,
2013-02-05 03:56:00,16.2,9.9,29.58,North,0,0.0,1.1,76,0.00,,,0.00,WUHU216HW,2013-02-05 08:56:00,
2013-02-05 03:58:00,16.2,9.9,29.58,North,0,0.2,0.2,76,0.00,,,0.00,WUHU216HW,2013-02-05 08:58:00,
2013-02-05 04:00:00,16.2,9.9,29.58,NNW,338,0.2,0.4,76,0.00,,,0.00,WUHU216HW,2013-02-05 09:00:00,
2013-02-05 04:01:00,16.2,9.9,29.58,NNW,338,0.0,0.4,76,0.00,,,0.00,WUHU216HW,2013-02-05 09:01:00,
2013-02-05 04:03:00,16.2,9.9,29.58,NW,315,0.4,0.7,76,0.00,,,0.00,WUHU216HW,2013-02-05 09:03:00,
2013-02-05 04:05:00,16.2,9.9,29.58,NNW,338,0.4,0.7,76,0.00,,,0.00,WUHU216HW,2013-02-05 09:05:00,
2013-02-05 04:06:00,16.2,9.9,29.58,NNW,338,0.2,0.7,76,0.00,,,0.00,WUHU216HW,2013-02-05 09:06:00,
2013-02-05 04:08:00,16.2,9.9,29.58,North,0,0.7,0.7,76,0.00,,,0.00,WUHU216HW,2013-02-05 09:08:00,
2013-02-05 04:11:00,16.2,9.9,29.58,North,0,0.0,0.7,76,0.00,,,0.00,WUHU216HW,2013-02-05 09:11:00,
2013-02-05 04:12:00,16.2,9.9,29.58,North,0,0.0,0.7,76,0.00,,,0.00,WUHU216HW,2013-02-05 09:12:00,
2013-02-05 04:13:00,16.2,9.9,29.58,North,0,0.0,0.7,76,0.00,,,0.00,WUHU216HW,2013-02-05 09:13:00,
2013-02-05 04:16:00,16.2,9.9,29.58,NW,315,1.1,1.1,76,0.00,,,0.00,WUHU216HW,2013-02-05 09:16:00,
2013-02-05 04:17:00,16.2,9.9,29.58,NW,315,1.1,1.1,76,0.00,,,0.00,WUHU216HW,2013-02-05 09:17:00,
2013-02-05 04:18:00,16.2,9.6,29.58,NNW,338,0.0,1.1,75,0.00,,,0.00,WUHU216HW,2013-02-05 09:18:00,
2013-02-05 04:21:00,16.2,9.6,29.58,NNW,338,0.4,1.1,75,0.00,,,0.00,WUHU216HW,2013-02-05 09:21:00,
2013-02-05 04:22:00,16.2,9.6,29.58,North,0,0.2,1.1,75,0.00,,,0.00,WUHU216HW,2013-02-05 09:22:00,
2013-02-05 04:23:00,16.2,9.6,29.58,North,0,1.8,1.8,75,0.00,,,0.00,WUHU216HW,2013-02-05 09:23:00,
2013-02-05 04:26:00,16.4,9.5,29.58,NNW,338,0.9,1.8,74,0.00,,,0.00,WUHU216HW,2013-02-05 09:26:00,
2013-02-05 04:27:00,16.4,9.5,29.58,NNW,338,0.9,1.8,74,0.00,,,0.00,WUHU216HW,2013-02-05 09:27:00,
2013-02-05 04:29:00,16.4,9.5,29.58,North,0,0.2,1.8,74,0.00,,,0.00,WUHU216HW,2013-02-05 09:29:00,
2013-02-05 04:31:00,16.4,9.5,29.58,North,0,2.5,2.5,74,0.00,,,0.00,WUHU216HW,2013-02-05 09:31:00,
2013-02-05 04:32:00,16.4,9.5,29.58,North,0,2.5,2.5,74,0.00,,,0.00,WUHU216HW,2013-02-05 09:32:00,
2013-02-05 04:34:00,16.4,9.5,29.58,North,0,0.7,2.5,74,0.00,,,0.00,WUHU216HW,2013-02-05 09:34:00,
2013-02-05 04:36:00,16.4,9.5,29.58,NW,315,0.4,2.5,74,0.00,,,0.00,WUHU216HW,2013-02-05 09:36:00,
2013-02-05 04:37:00,16.4,9.5,29.58,NW,315,0.4,2.5,74,0.00,,,0.00,WUHU216HW,2013-02-05 09:37:00,
2013-02-05 04:39:00,16.4,9.5,29.58,NW,315,1.1,2.5,74,0.00,,,0.00,WUHU216HW,2013-02-05 09:39:00,
2013-02-05 04:41:00,16.4,9.5,29.58,NW,315,0.0,1.1,74,0.00,,,0.00,WUHU216HW,2013-02-05 09:41:00,
2013-02-05 04:42:00,16.4,9.5,29.58,NW,315,0.0,1.1,74,0.00,,,0.00,WUHU216HW,2013-02-05 09:42:00,
2013-02-05 04:44:00,16.4,9.5,29.58,NW,315,1.1,1.1,74,0.00,,,0.00,WUHU216HW,2013-02-05 09:44:00,
2013-02-05 04:47:00,16.4,9.5,29.58,NW,315,0.7,1.1,74,0.00,,,0.00,WUHU216HW,2013-02-05 09:47:00,
2013-02-05 04:49:00,16.4,9.5,29.59,WNW,293,0.7,1.1,74,0.00,,,0.00,WUHU216HW,2013-02-05 09:49:00,
2013-02-05 04:52:00,16.4,9.5,29.59,WNW,293,1.1,1.1,74,0.00,,,0.00,WUHU216HW,2013-02-05 09:52:00,
2013-02-05 04:54:00,16.4,9.5,29.59,NNW,338,0.4,1.1,74,0.00,,,0.00,WUHU216HW,2013-02-05 09:54:00,
2013-02-05 04:57:00,16.4,9.5,29.58,NW,315,0.9,1.1,74,0.00,,,0.00,WUHU216HW,2013-02-05 09:57:00,
2013-02-05 04:58:00,16.4,9.5,29.59,North,0,0.9,1.1,74,0.00,,,0.00,WUHU216HW,2013-02-05 09:58:00,
2013-02-05 05:00:00,16.4,9.2,29.59,NNW,338,0.4,1.6,73,0.00,,,0.00,WUHU216HW,2013-02-05 10:00:00,
2013-02-05 05:02:00,16.4,9.5,29.58,North,0,0.9,1.6,74,0.00,,,0.00,WUHU216HW,2013-02-05 10:02:00,
2013-02-05 05:03:00,16.4,9.5,29.58,NNW,338,0.2,1.6,74,0.00,,,0.00,WUHU216HW,2013-02-05 10:03:00,
2013-02-05 05:05:00,16.4,9.2,29.58,NNW,338,0.4,1.6,73,0.00,,,0.00,WUHU216HW,2013-02-05 10:05:00,
2013-02-05 05:07:00,16.4,9.2,29.59,North,0,0.4,1.6,73,0.00,,,0.00,WUHU216HW,2013-02-05 10:07:00,
2013-02-05 05:08:00,16.4,9.2,29.58,NNE,23,2.5,2.5,73,0.00,,,0.00,WUHU216HW,2013-02-05 10:08:00,
2013-02-05 05:10:00,16.4,9.2,29.58,NNW,338,1.1,2.5,73,0.00,,,0.00,WUHU216HW,2013-02-05 10:10:00,
2013-02-05 05:12:00,16.4,9.2,29.58,North,0,0.4,2.5,73,0.00,,,0.00,WUHU216HW,2013-02-05 10:12:00,
2013-02-05 05:13:00,16.4,9.2,29.58,NNW,338,1.3,2.5,73,0.00,,,0.00,WUHU216HW,2013-02-05 10:13:00,
2013-02-05 05:15:00,16.4,9.2,29.59,NNW,338,0.4,2.5,73,0.00,,,0.00,WUHU216HW,2013-02-05 10:15:00,
2013-02-05 05:17:00,16.4,9.2,29.59,North,0,1.6,2.5,73,0.00,,,0.00,WUHU216HW,2013-02-05 10:17:00,
2013-02-05 05:18:00,16.6,9.4,29.59,North,0,1.8,1.8,73,0.00,,,0.00,WUHU216HW,2013-02-05 10:18:00,
2013-02-05 05:20:00,16.6,9.1,29.59,NNW,338,1.8,1.8,72,0.00,,,0.00,WUHU216HW,2013-02-05 10:20:00,
2013-02-05 05:22:00,16.6,9.1,29.59,North,0,1.1,1.8,72,0.00,,,0.00,WUHU216HW,2013-02-05 10:22:00,
2013-02-05 05:23:00,16.6,9.1,29.59,North,0,0.7,1.8,72,0.00,,,0.00,WUHU216HW,2013-02-05 10:23:00,
2013-02-05 05:25:00,16.6,9.1,29.59,North,0,0.7,1.8,72,0.00,,,0.00,WUHU216HW,2013-02-05 10:25:00,
2013-02-05 05:27:00,16.6,9.1,29.59,North,0,1.3,1.8,72,0.00,,,0.00,WUHU216HW,2013-02-05 10:27:00,
2013-02-05 05:28:00,16.4,8.9,29.59,North,0,1.3,1.8,72,0.00,,,0.00,WUHU216HW,2013-02-05 10:28:00,
2013-02-05 05:31:00,16.6,9.1,29.59,NNW,338,0.7,1.3,72,0.00,,,0.00,WUHU216HW,2013-02-05 10:31:00,
2013-02-05 05:32:00,16.6,9.1,29.59,NNW,338,0.7,1.3,72,0.00,,,0.00,WUHU216HW,2013-02-05 10:32:00,
2013-02-05 05:33:00,16.6,9.1,29.59,North,0,0.4,1.3,72,0.00,,,0.00,WUHU216HW,2013-02-05 10:33:00,
2013-02-05 05:36:00,16.6,9.1,29.59,North,0,1.3,2.2,72,0.00,,,0.00,WUHU216HW,2013-02-05 10:36:00,
2013-02-05 05:37:00,16.6,9.1,29.59,North,0,2.0,2.2,72,0.00,,,0.00,WUHU216HW,2013-02-05 10:37:00,
2013-02-05 05:38:00,16.6,9.1,29.59,North,0,2.0,2.2,72,0.00,,,0.00,WUHU216HW,2013-02-05 10:38:00,
2013-02-05 05:41:00,16.6,9.1,29.59,North,0,2.0,2.2,72,0.00,,,0.00,WUHU216HW,2013-02-05 10:41:00,
2013-02-05 05:42:00,16.6,9.1,29.59,North,0,2.2,2.2,72,0.00,,,0.00,WUHU216HW,2013-02-05 10:42:00,
2013-02-05 05:43:00,16.6,9.1,29.59,North,0,1.1,2.2,72,0.00,,,0.00,WUHU216HW,2013-02-05 10:43:00,
2013-02-05 05:46:00,16.4,8.9,29.59,North,0,1.1,2.2,72,0.00,,,0.00,WUHU216HW,2013-02-05 10:46:00,
2013-02-05 05:47:00,16.4,8.9,29.59,North,0,1.8,2.2,72,0.00,,,0.00,WUHU216HW,2013-02-05 10:47:00,
2013-02-05 05:48:00,16.4,8.9,29.59,NNE,23,1.8,2.2,72,0.00,,,0.00,WUHU216HW,2013-02-05 10:48:00,
2013-02-05 05:49:00,16.4,8.9,29.59,NNE,23,1.8,2.2,72,0.00,,,0.00,WUHU216HW,2013-02-05 10:49:00,
2013-02-05 05:51:00,16.6,9.1,29.59,North,0,1.1,2.2,72,0.00,,,0.00,WUHU216HW,2013-02-05 10:51:00,
2013-02-05 05:53:00,16.4,8.9,29.59,NNE,23,1.6,2.0,72,0.00,,,0.00,WUHU216HW,2013-02-05 10:53:00,
2013-02-05 05:54:00,16.4,8.9,29.59,North,0,1.6,2.5,72,0.00,,,0.00,WUHU216HW,2013-02-05 10:54:00,
2013-02-05 05:56:00,16.6,9.1,29.59,NE,45,0.4,2.5,72,0.00,,,0.00,WUHU216HW,2013-02-05 10:56:00,
2013-02-05 05:58:00,16.4,8.9,29.59,North,0,1.1,2.5,72,0.00,,,0.00,WUHU216HW,2013-02-05 10:58:00,
2013-02-05 05:59:00,16.4,8.9,29.59,NNE,23,0.4,2.5,72,0.00,,,0.00,WUHU216HW,2013-02-05 10:59:00,
2013-02-05 06:01:00,16.4,8.9,29.59,NNW,338,0.2,2.5,72,0.00,,,0.00,WUHU216HW,2013-02-05 11:01:00,
2013-02-05 06:03:00,16.4,8.9,29.59,NNW,338,0.2,2.5,72,0.00,,,0.00,WUHU216HW,2013-02-05 11:03:00,
2013-02-05 06:04:00,16.4,8.9,29.59,North,0,1.8,1.8,72,0.00,,,0.00,WUHU216HW,2013-02-05 11:04:00,
2013-02-05 06:06:00,16.4,8.9,29.59,North,0,0.4,1.8,72,0.00,,,0.00,WUHU216HW,2013-02-05 11:06:00,
2013-02-05 06:08:00,16.4,8.9,29.59,NNW,338,0.2,1.8,72,0.00,,,0.00,WUHU216HW,2013-02-05 11:08:00,
2013-02-05 06:09:00,16.4,8.9,29.59,NNW,338,0.2,1.8,72,0.00,,,0.00,WUHU216HW,2013-02-05 11:09:00,
2013-02-05 06:11:00,16.2,9.0,29.59,NNW,338,0.4,1.8,73,0.00,,,0.00,WUHU216HW,2013-02-05 11:11:00,
2013-02-05 06:13:00,16.4,9.2,29.59,NNW,338,0.4,1.8,73,0.00,,,0.00,WUHU216HW,2013-02-05 11:13:00,
2013-02-05 06:14:00,16.4,9.2,29.59,NNW,338,0.4,0.9,73,0.00,,,0.00,WUHU216HW,2013-02-05 11:14:00,
2013-02-05 06:15:00,16.4,9.2,29.59,NNW,338,0.0,0.9,73,0.00,,,0.00,WUHU216HW,2013-02-05 11:15:00,
2013-02-05 06:17:00,16.4,9.2,29.59,North,0,0.4,0.9,73,0.00,,,0.00,WUHU216HW,2013-02-05 11:17:00,
2013-02-05 06:18:00,16.4,9.2,29.59,North,0,1.3,1.3,73,0.00,,,0.00,WUHU216HW,2013-02-05 11:18:00,
2013-02-05 06:19:00,16.4,9.5,29.59,North,0,1.6,1.6,74,0.00,,,0.00,WUHU216HW,2013-02-05 11:19:00,
2013-02-05 06:20:00,16.4,9.5,29.60,NNW,338,0.4,1.6,74,0.00,,,0.00,WUHU216HW,2013-02-05 11:20:00,
2013-02-05 06:22:00,16.4,9.2,29.60,North,0,0.7,1.6,73,0.00,,,0.00,WUHU216HW,2013-02-05 11:22:00,
2013-02-05 06:23:00,16.2,9.3,29.60,NE,45,0.7,1.6,74,0.00,,,0.00,WUHU216HW,2013-02-05 11:23:00,
2013-02-05 06:24:00,16.4,9.2,29.60,NNE,23,0.0,1.6,73,0.00,,,0.00,WUHU216HW,2013-02-05 11:24:00,
2013-02-05 06:25:00,16.4,9.2,29.60,NNE,23,0.0,1.6,73,0.00,,,0.00,WUHU216HW,2013-02-05 11:25:00,
2013-02-05 06:27:00,16.2,9.0,29.60,East,90,0.0,1.6,73,0.00,,,0.00,WUHU216HW,2013-02-05 11:27:00,
2013-02-05 06:28:00,16.4,9.2,29.60,East,90,0.0,1.6,73,0.00,,,0.00,WUHU216HW,2013-02-05 11:28:00,
2013-02-05 06:29:00,16.4,9.2,29.60,NE,45,0.0,0.7,73,0.00,,,0.00,WUHU216HW,2013-02-05 11:29:00,
2013-02-05 06:30:00,16.4,9.2,29.60,ESE,113,0.0,0.7,73,0.00,,,0.00,WUHU216HW,2013-02-05 11:30:00,
2013-02-05 06:32:00,16.4,9.2,29.60,East,90,0.0,0.4,73,0.00,,,0.00,WUHU216HW,2013-02-05 11:32:00,
2013-02-05 06:33:00,16.4,9.2,29.60,East,90,0.0,0.4,73,0.00,,,0.00,WUHU216HW,2013-02-05 11:33:00,
2013-02-05 06:34:00,16.2,9.0,29.60,East,90,0.0,0.0,73,0.00,,,0.00,WUHU216HW,2013-02-05 11:34:00,
2013-02-05 06:35:00,16.4,9.2,29.60,East,90,0.0,0.0,73,0.00,,,0.00,WUHU216HW,2013-02-05 11:35:00,
2013-02-05 06:37:00,16.4,9.5,29.60,East,90,0.0,0.0,74,0.00,,,0.00,WUHU216HW,2013-02-05 11:37:00,
2013-02-05 06:38:00,16.4,9.5,29.60,East,90,0.0,0.0,74,0.00,,,0.00,WUHU216HW,2013-02-05 11:38:00,
2013-02-05 06:40:00,16.4,9.5,29.61,North,0,0.7,0.7,74,0.00,,,0.00,WUHU216HW,2013-02-05 11:40:00,
2013-02-05 06:42:00,16.2,9.3,29.61,NNE,23,0.0,0.7,74,0.00,,,0.00,WUHU216HW,2013-02-05 11:42:00,
2013-02-05 06:43:00,16.2,9.3,29.61,NNE,23,0.0,0.7,74,0.00,,,0.00,WUHU216HW,2013-02-05 11:43:00,
2013-02-05 06:45:00,16.4,9.5,29.61,NNE,23,0.0,0.7,74,0.00,,,0.00,WUHU216HW,2013-02-05 11:45:00,
2013-02-05 06:47:00,16.4,9.5,29.61,NNE,23,0.0,0.7,74,0.00,,,0.00,WUHU216HW,2013-02-05 11:47:00,
2013-02-05 06:48:00,16.4,9.5,29.61,NNE,23,0.0,0.7,74,0.00,,,0.00,WUHU216HW,2013-02-05 11:48:00,
2013-02-05 06:50:00,16.2,9.3,29.61,NNE,23,0.0,0.4,74,0.00,,,0.00,WUHU216HW,2013-02-05 11:50:00,
2013-02-05 06:52:00,16.2,9.3,29.61,NNE,23,0.0,0.0,74,0.00,,,0.00,WUHU216HW,2013-02-05 11:52:00,
2013-02-05 06:53:00,16.2,9.3,29.61,NNE,23,0.0,0.0,74,0.00,,,0.00,WUHU216HW,2013-02-05 11:53:00,
2013-02-05 06:55:00,16.2,9.3,29.61,NE,45,0.0,0.0,74,0.00,,,0.00,WUHU216HW,2013-02-05 11:55:00,
2013-02-05 06:57:00,16.4,9.5,29.61,NE,45,0.4,0.4,74,0.00,,,0.00,WUHU216HW,2013-02-05 11:57:00,
2013-02-05 06:58:00,16.4,9.5,29.61,NE,45,0.4,0.4,74,0.00,,,0.00,WUHU216HW,2013-02-05 11:58:00,
2013-02-05 07:00:00,16.4,9.5,29.61,NNE,23,0.0,0.4,74,0.00,,,0.00,WUHU216HW,2013-02-05 12:00:00,
2013-02-05 07:01:00,16.4,9.5,29.61,NNE,23,0.0,0.4,74,0.00,,,0.00,WUHU216HW,2013-02-05 12:01:00,
2013-02-05 07:02:00,16.4,9.5,29.61,NNE,23,0.4,0.4,74,0.00,,,0.00,WUHU216HW,2013-02-05 12:02:00,
2013-02-05 07:03:00,16.4,9.5,29.61,NNE,23,0.2,0.4,74,0.00,,,0.00,WUHU216HW,2013-02-05 12:03:00,
2013-02-05 07:05:00,16.2,9.3,29.62,NNE,23,0.7,0.7,74,0.00,,,0.00,WUHU216HW,2013-02-05 12:05:00,
2013-02-05 07:06:00,16.4,9.5,29.62,NNE,23,1.1,1.1,74,0.00,,,0.00,WUHU216HW,2013-02-05 12:06:00,
2013-02-05 07:08:00,16.4,9.5,29.62,NNE,23,0.7,1.1,74,0.00,,,0.00,WUHU216HW,2013-02-05 12:08:00,
2013-02-05 07:10:00,16.4,9.5,29.62,North,0,0.7,1.1,74,0.00,,,0.00,WUHU216HW,2013-02-05 12:10:00,
2013-02-05 07:11:00,16.4,9.5,29.62,North,0,0.4,1.1,74,0.00,,,0.00,WUHU216HW,2013-02-05 12:11:00,
2013-02-05 07:13:00,16.4,9.5,29.62,North,0,0.0,1.1,74,0.00,,,0.00,WUHU216HW,2013-02-05 12:13:00,
2013-02-05 07:15:00,16.4,9.5,29.62,North,0,0.0,1.1,74,0.00,,,0.00,WUHU216HW,2013-02-05 12:15:00,
2013-02-05 07:16:00,16.4,9.5,29.62,North,0,0.0,0.7,74,0.00,,,0.00,WUHU216HW,2013-02-05 12:16:00,
2013-02-05 07:18:00,16.4,9.5,29.63,North,0,0.0,0.7,74,0.00,,,0.00,WUHU216HW,2013-02-05 12:18:00,
2013-02-05 07:21:00,16.6,9.6,29.62,NNE,23,1.1,1.1,74,0.00,,,0.00,WUHU216HW,2013-02-05 12:21:00,
2013-02-05 07:23:00,16.6,9.6,29.62,NNE,23,1.1,1.3,74,0.00,,,0.00,WUHU216HW,2013-02-05 12:23:00,
2013-02-05 07:26:00,16.4,9.5,29.62,North,0,0.4,1.3,74,0.00,,,0.00,WUHU216HW,2013-02-05 12:26:00,
2013-02-05 07:27:00,16.4,9.5,29.62,North,0,0.4,1.3,74,0.00,,,0.00,WUHU216HW,2013-02-05 12:27:00,
2013-02-05 07:28:00,16.4,9.5,29.62,North,0,0.9,1.3,74,0.00,,,0.00,WUHU216HW,2013-02-05 12:28:00,
2013-02-05 07:31:00,16.6,9.6,29.63,North,0,0.7,1.3,74,0.00,,,0.00,WUHU216HW,2013-02-05 12:31:00,
2013-02-05 07:32:00,16.6,9.6,29.63,North,0,0.4,1.1,74,0.00,,,0.00,WUHU216HW,2013-02-05 12:32:00,
2013-02-05 07:33:00,16.6,9.6,29.63,North,0,1.1,1.1,74,0.00,,,0.00,WUHU216HW,2013-02-05 12:33:00,
2013-02-05 07:36:00,16.6,10.0,29.63,North,0,0.0,1.1,75,0.00,,,0.00,WUHU216HW,2013-02-05 12:36:00,
2013-02-05 07:37:00,16.6,10.0,29.63,North,0,0.2,1.1,75,0.00,,,0.00,WUHU216HW,2013-02-05 12:37:00,
2013-02-05 07:38:00,16.6,9.6,29.63,NNE,23,0.9,1.1,74,0.00,,,0.00,WUHU216HW,2013-02-05 12:38:00,
2013-02-05 07:39:00,16.6,10.0,29.63,NNE,23,0.9,1.1,75,0.00,,,0.00,WUHU216HW,2013-02-05 12:39:00,
2013-02-05 07:41:00,16.7,10.2,29.63,NNE,23,1.1,1.1,75,0.00,,,0.00,WUHU216HW,2013-02-05 12:41:00,
2013-02-05 07:42:00,16.6,10.0,29.63,NNE,23,0.4,1.1,75,0.00,,,0.00,WUHU216HW,2013-02-05 12:42:00,
2013-02-05 07:43:00,16.7,10.2,29.63,NE,45,0.2,1.1,75,0.00,,,0.00,WUHU216HW,2013-02-05 12:43:00,
2013-02-05 07:44:00,16.7,10.2,29.63,NNE,23,1.6,1.6,75,0.00,,,0.00,WUHU216HW,2013-02-05 12:44:00,
2013-02-05 07:46:00,16.7,10.2,29.63,North,0,1.1,1.6,75,0.00,,,0.00,WUHU216HW,2013-02-05 12:46:00,
2013-02-05 07:47:00,16.7,10.2,29.63,NNE,23,0.9,1.6,75,0.00,,,0.00,WUHU216HW,2013-02-05 12:47:00,
2013-02-05 07:48:00,16.7,10.2,29.63,NNE,23,0.4,1.6,75,0.00,,,0.00,WUHU216HW,2013-02-05 12:48:00,
2013-02-05 07:49:00,16.7,10.2,29.63,NNE,23,0.4,1.6,75,0.00,,,0.00,WUHU216HW,2013-02-05 12:49:00,
2013-02-05 07:51:00,16.7,10.2,29.63,NNE,23,0.0,1.6,75,0.00,,,0.00,WUHU216HW,2013-02-05 12:51:00,
2013-02-05 07:52:00,16.7,10.2,29.63,NNE,23,0.9,1.6,75,0.00,,,0.00,WUHU216HW,2013-02-05 12:52:00,
2013-02-05 07:53:00,16.9,10.3,29.63,North,0,1.1,1.6,75,0.00,,,0.00,WUHU216HW,2013-02-05 12:53:00,
2013-02-05 07:54:00,16.9,10.3,29.63,NNW,338,1.3,1.3,75,0.00,,,0.00,WUHU216HW,2013-02-05 12:54:00,
2013-02-05 07:57:00,16.9,10.3,29.64,North,0,1.8,1.8,75,0.00,,,0.00,WUHU216HW,2013-02-05 12:57:00,
2013-02-05 07:59:00,16.9,10.3,29.63,NNW,338,1.1,1.8,75,0.00,,,0.00,WUHU216HW,2013-02-05 12:59:00,
2013-02-05 08:02:00,16.9,10.6,29.64,NNE,23,2.0,2.0,76,0.00,,,0.00,WUHU216HW,2013-02-05 13:02:00,
2013-02-05 08:04:00,16.9,10.6,29.63,NNE,23,1.1,2.0,76,0.00,,,0.00,WUHU216HW,2013-02-05 13:04:00,
2013-02-05 08:07:00,16.9,10.6,29.63,NNW,338,0.4,2.0,76,0.00,,,0.00,WUHU216HW,2013-02-05 13:07:00,
2013-02-05 08:09:00,17.1,10.8,29.63,NNW,338,0.4,2.0,76,0.00,,,0.00,WUHU216HW,2013-02-05 13:09:00,
2013-02-05 08:12:00,17.1,10.8,29.63,NNW,338,0.4,2.0,76,0.00,,,0.00,WUHU216HW,2013-02-05 13:12:00,
2013-02-05 08:13:00,17.1,10.8,29.63,NNW,338,0.7,1.8,76,0.00,,,0.00,WUHU216HW,2013-02-05 13:13:00,
2013-02-05 08:14:00,17.3,10.9,29.63,NNW,338,0.2,1.8,76,0.00,,,0.00,WUHU216HW,2013-02-05 13:14:00,
2013-02-05 08:15:00,17.3,10.9,29.64,NNW,338,0.2,1.8,76,0.00,,,0.00,WUHU216HW,2013-02-05 13:15:00,
2013-02-05 08:17:00,17.3,10.9,29.63,NNW,338,0.9,1.8,76,0.00,,,0.00,WUHU216HW,2013-02-05 13:17:00,
2013-02-05 08:18:00,17.3,10.9,29.63,NNE,23,1.3,1.8,76,0.00,,,0.00,WUHU216HW,2013-02-05 13:18:00,
2013-02-05 08:19:00,17.5,11.1,29.63,NNW,338,2.2,2.2,76,0.00,,,0.00,WUHU216HW,2013-02-05 13:19:00,
2013-02-05 08:20:00,17.5,11.1,29.63,NNW,338,2.2,2.2,76,0.00,,,0.00,WUHU216HW,2013-02-05 13:20:00,
2013-02-05 08:22:00,17.5,11.1,29.63,North,0,1.3,2.2,76,0.00,,,0.00,WUHU216HW,2013-02-05 13:22:00,
2013-02-05 08:23:00,17.5,11.1,29.63,NNW,338,1.1,2.2,76,0.00,,,0.00,WUHU216HW,2013-02-05 13:23:00,
2013-02-05 08:24:00,17.5,11.1,29.63,North,0,2.5,2.5,76,0.00,,,0.00,WUHU216HW,2013-02-05 13:24:00,
2013-02-05 08:25:00,17.5,11.1,29.63,North,0,2.5,2.5,76,0.00,,,0.00,WUHU216HW,2013-02-05 13:25:00,
2013-02-05 08:27:00,17.6,11.3,29.63,NNW,338,0.4,2.5,76,0.00,,,0.00,WUHU216HW,2013-02-05 13:27:00,
2013-02-05 08:28:00,17.6,11.3,29.63,NNW,338,0.4,2.5,76,0.00,,,0.00,WUHU216HW,2013-02-05 13:28:00,
2013-02-05 08:29:00,17.6,11.3,29.63,NNW,338,1.1,2.5,76,0.00,,,0.00,WUHU216HW,2013-02-05 13:29:00,
2013-02-05 08:30:00,17.6,11.3,29.63,NNW,338,1.1,2.5,76,0.00,,,0.00,WUHU216HW,2013-02-05 13:30:00,
2013-02-05 08:32:00,17.8,11.2,29.63,NW,315,1.3,2.5,75,0.00,,,0.00,WUHU216HW,2013-02-05 13:32:00,
2013-02-05 08:34:00,17.8,11.2,29.63,North,0,1.1,2.5,75,0.00,,,0.00,WUHU216HW,2013-02-05 13:34:00,
2013-02-05 08:35:00,17.8,10.9,29.63,North,0,6.0,6.0,74,0.00,,,0.00,WUHU216HW,2013-02-05 13:35:00,
2013-02-05 08:37:00,17.8,10.5,29.63,North,0,1.3,6.0,73,0.00,,,0.00,WUHU216HW,2013-02-05 13:37:00,
2013-02-05 08:39:00,17.8,10.9,29.63,North,0,4.3,6.0,74,0.00,,,0.00,WUHU216HW,2013-02-05 13:39:00,
2013-02-05 08:40:00,17.8,10.5,29.64,North,0,2.2,6.0,73,0.00,,,0.00,WUHU216HW,2013-02-05 13:40:00,
2013-02-05 08:42:00,18.0,10.7,29.63,NNW,338,1.3,6.0,73,0.00,,,0.00,WUHU216HW,2013-02-05 13:42:00,
2013-02-05 08:44:00,18.0,10.7,29.64,NNE,23,1.8,6.0,73,0.00,,,0.00,WUHU216HW,2013-02-05 13:44:00,
2013-02-05 08:45:00,18.2,10.9,29.64,North,0,3.6,4.3,73,0.00,,,0.00,WUHU216HW,2013-02-05 13:45:00,
2013-02-05 08:47:00,18.2,10.4,29.64,North,0,2.9,4.3,71,0.00,,,0.00,WUHU216HW,2013-02-05 13:47:00,
2013-02-05 08:49:00,18.2,10.4,29.64,NNE,23,2.9,3.6,71,0.00,,,0.00,WUHU216HW,2013-02-05 13:49:00,
2013-02-05 08:50:00,18.2,10.4,29.64,NNE,23,2.9,3.6,71,0.00,,,0.00,WUHU216HW,2013-02-05 13:50:00,
2013-02-05 08:53:00,18.2,10.6,29.64,North,0,3.1,3.6,72,0.00,,,0.00,WUHU216HW,2013-02-05 13:53:00,
2013-02-05 08:54:00,18.4,10.8,29.64,NNW,338,1.6,3.6,72,0.00,,,0.00,WUHU216HW,2013-02-05 13:54:00,
2013-02-05 08:55:00,18.4,10.4,29.64,NNW,338,2.0,3.1,71,0.00,,,0.00,WUHU216HW,2013-02-05 13:55:00,
2013-02-05 08:58:00,18.4,10.4,29.64,WNW,293,3.1,3.1,71,0.00,,,0.00,WUHU216HW,2013-02-05 13:58:00,
2013-02-05 08:59:00,18.4,10.4,29.64,NNW,338,2.0,3.1,71,0.00,,,0.00,WUHU216HW,2013-02-05 13:59:00,
2013-02-05 09:00:00,18.4,10.4,29.64,NNW,338,2.2,3.1,71,0.00,,,0.00,WUHU216HW,2013-02-05 14:00:00,
2013-02-05 09:01:00,18.4,10.2,29.64,NNW,338,2.2,3.1,70,0.00,,,0.00,WUHU216HW,2013-02-05 14:01:00,
2013-02-05 09:04:00,18.4,9.8,29.64,North,0,4.7,4.7,69,0.00,,,0.00,WUHU216HW,2013-02-05 14:04:00,
2013-02-05 09:05:00,18.4,9.8,29.64,NNW,338,2.9,4.7,69,0.00,,,0.00,WUHU216HW,2013-02-05 14:05:00,
2013-02-05 09:06:00,18.4,9.8,29.64,WNW,293,3.1,4.7,69,0.00,,,0.00,WUHU216HW,2013-02-05 14:06:00,
2013-02-05 09:09:00,18.2,9.7,29.64,NW,315,2.5,4.7,69,0.00,,,0.00,WUHU216HW,2013-02-05 14:09:00,
2013-02-05 09:10:00,18.2,9.7,29.64,NW,315,1.3,4.7,69,0.00,,,0.00,WUHU216HW,2013-02-05 14:10:00,
2013-02-05 09:11:00,18.4,9.8,29.65,NNW,338,1.8,4.7,69,0.00,,,0.00,WUHU216HW,2013-02-05 14:11:00,
2013-02-05 09:14:00,18.2,9.0,29.64,NNE,23,2.2,4.0,67,0.00,,,0.00,WUHU216HW,2013-02-05 14:14:00,
2013-02-05 09:15:00,18.2,9.0,29.64,North,0,4.0,4.0,67,0.00,,,0.00,WUHU216HW,2013-02-05 14:15:00,
2013-02-05 09:16:00,18.2,8.6,29.65,North,0,2.5,4.0,66,0.00,,,0.00,WUHU216HW,2013-02-05 14:16:00,
2013-02-05 09:19:00,18.2,9.0,29.65,NNW,338,1.1,4.0,67,0.00,,,0.00,WUHU216HW,2013-02-05 14:19:00,
2013-02-05 09:20:00,18.2,9.4,29.64,NNW,338,1.8,4.0,68,0.00,,,0.00,WUHU216HW,2013-02-05 14:20:00,
2013-02-05 09:21:00,18.4,9.6,29.64,NW,315,1.8,4.0,68,0.00,,,0.00,WUHU216HW,2013-02-05 14:21:00,
2013-02-05 09:24:00,18.4,9.2,29.64,North,0,1.1,4.0,67,0.00,,,0.00,WUHU216HW,2013-02-05 14:24:00,
2013-02-05 09:25:00,18.4,9.2,29.64,North,0,3.6,3.6,67,0.00,,,0.00,WUHU216HW,2013-02-05 14:25:00,
2013-02-05 09:26:00,18.4,8.8,29.64,North,0,3.8,3.8,66,0.00,,,0.00,WUHU216HW,2013-02-05 14:26:00,
2013-02-05 09:30:00,18.4,8.5,29.64,NNW,338,1.3,4.5,65,0.00,,,0.00,WUHU216HW,2013-02-05 14:30:00,
2013-02-05 09:31:00,18.5,8.6,29.65,North,0,5.8,5.8,65,0.00,,,0.00,WUHU216HW,2013-02-05 14:31:00,
2013-02-05 09:35:00,18.5,7.9,29.65,North,0,2.0,5.8,63,0.00,,,0.00,WUHU216HW,2013-02-05 14:35:00,
2013-02-05 09:36:00,18.7,8.1,29.65,NNW,338,1.8,5.8,63,0.00,,,0.00,WUHU216HW,2013-02-05 14:36:00,
2013-02-05 09:40:00,18.7,8.1,29.64,North,0,2.9,5.8,63,0.00,,,0.00,WUHU216HW,2013-02-05 14:40:00,
2013-02-05 09:41:00,18.7,8.1,29.65,NNW,338,1.8,5.1,63,0.00,,,0.00,WUHU216HW,2013-02-05 14:41:00,
2013-02-05 09:45:00,18.7,7.7,29.65,East,90,1.8,2.9,62,0.00,,,0.00,WUHU216HW,2013-02-05 14:45:00,
2013-02-05 09:46:00,18.7,7.7,29.65,ENE,68,0.7,2.9,62,0.00,,,0.00,WUHU216HW,2013-02-05 14:46:00,
2013-02-05 09:47:00,18.7,8.5,29.65,North,0,0.9,2.9,64,0.00,,,0.00,WUHU216HW,2013-02-05 14:47:00,
2013-02-05 09:50:00,19.1,8.8,29.64,NNW,338,1.1,2.0,64,0.00,,,0.00,WUHU216HW,2013-02-05 14:50:00,
2013-02-05 09:51:00,19.1,8.8,29.65,NNE,23,3.6,3.6,64,0.00,,,0.00,WUHU216HW,2013-02-05 14:51:00,
2013-02-05 09:52:00,19.1,8.5,29.64,NNE,23,2.0,3.6,63,0.00,,,0.00,WUHU216HW,2013-02-05 14:52:00,
2013-02-05 09:56:00,19.1,8.1,29.64,NNW,338,2.5,3.6,62,0.00,,,0.00,WUHU216HW,2013-02-05 14:56:00,
2013-02-05 09:57:00,19.1,8.5,29.64,NNW,338,2.0,3.6,63,0.00,,,0.00,WUHU216HW,2013-02-05 14:57:00,
2013-02-05 10:01:00,19.3,8.3,29.64,NNW,338,1.8,4.7,62,0.00,,,0.00,WUHU216HW,2013-02-05 15:01:00,
2013-02-05 10:02:00,19.3,8.3,29.64,NNW,338,2.0,4.7,62,0.00,,,0.00,WUHU216HW,2013-02-05 15:02:00,
2013-02-05 10:06:00,19.4,8.1,29.65,NNW,338,1.8,4.7,61,0.00,,,0.00,WUHU216HW,2013-02-05 15:06:00,
2013-02-05 10:07:00,19.6,8.7,29.64,WNW,293,0.0,4.7,62,0.00,,,0.00,WUHU216HW,2013-02-05 15:07:00,
2013-02-05 10:11:00,19.8,8.8,29.65,NW,315,1.6,3.4,62,0.00,,,0.00,WUHU216HW,2013-02-05 15:11:00,
2013-02-05 10:12:00,19.8,9.1,29.65,NW,315,1.6,3.4,63,0.00,,,0.00,WUHU216HW,2013-02-05 15:12:00,
2013-02-05 10:16:00,20.0,8.7,29.64,North,0,3.1,3.1,61,0.00,,,0.00,WUHU216HW,2013-02-05 15:16:00,
2013-02-05 10:17:00,20.0,8.3,29.65,North,0,2.0,3.1,60,0.00,,,0.00,WUHU216HW,2013-02-05 15:17:00,
2013-02-05 10:18:00,20.2,8.5,29.65,NNE,23,1.1,3.1,60,0.00,,,0.00,WUHU216HW,2013-02-05 15:18:00,
2013-02-05 10:21:00,20.2,8.8,29.64,North,0,2.5,3.1,61,0.00,,,0.00,WUHU216HW,2013-02-05 15:21:00,
2013-02-05 10:22:00,20.3,9.0,29.64,East,90,0.2,3.1,61,0.00,,,0.00,WUHU216HW,2013-02-05 15:22:00,
2013-02-05 10:23:00,20.3,9.0,29.64,SE,135,1.1,3.1,61,0.00,,,0.00,WUHU216HW,2013-02-05 15:23:00,
2013-02-05 10:26:00,20.7,9.4,29.64,NW,315,1.8,2.5,61,0.00,,,0.00,WUHU216HW,2013-02-05 15:26:00,
2013-02-05 10:27:00,20.7,9.4,29.64,North,0,2.5,2.5,61,0.00,,,0.00,WUHU216HW,2013-02-05 15:27:00,
2013-02-05 10:28:00,20.9,8.7,29.65,NE,45,3.8,3.8,59,0.00,,,0.00,WUHU216HW,2013-02-05 15:28:00,
2013-02-05 10:31:00,20.9,8.7,29.64,North,0,1.3,3.8,59,0.00,,,0.00,WUHU216HW,2013-02-05 15:31:00,
2013-02-05 10:32:00,20.9,8.7,29.64,West,270,1.6,3.8,59,0.00,,,0.00,WUHU216HW,2013-02-05 15:32:00,
2013-02-05 10:33:00,21.1,9.4,29.64,WNW,293,0.2,3.8,60,0.00,,,0.00,WUHU216HW,2013-02-05 15:33:00,
2013-02-05 10:36:00,21.2,9.9,29.64,North,0,0.2,3.8,61,0.00,,,0.00,WUHU216HW,2013-02-05 15:36:00,
2013-02-05 10:37:00,21.2,9.9,29.64,NNE,23,2.5,3.8,61,0.00,,,0.00,WUHU216HW,2013-02-05 15:37:00,
2013-02-05 10:38:00,21.4,8.9,29.64,ESE,113,2.2,2.5,58,0.00,,,0.00,WUHU216HW,2013-02-05 15:38:00,
2013-02-05 10:41:00,21.6,9.5,29.65,SSE,158,0.2,2.5,59,0.00,,,0.00,WUHU216HW,2013-02-05 15:41:00,
2013-02-05 10:42:00,21.6,9.9,29.64,NNW,338,0.2,2.5,60,0.00,,,0.00,WUHU216HW,2013-02-05 15:42:00,
2013-02-05 10:43:00,21.6,9.9,29.64,NNW,338,2.5,2.5,60,0.00,,,0.00,WUHU216HW,2013-02-05 15:43:00,
2013-02-05 10:47:00,21.6,9.5,29.64,South,180,0.4,3.6,59,0.00,,,0.00,WUHU216HW,2013-02-05 15:47:00,
2013-02-05 10:48:00,21.8,9.6,29.64,SSW,203,0.4,3.6,59,0.00,,,0.00,WUHU216HW,2013-02-05 15:48:00,
2013-02-05 10:52:00,22.1,9.9,29.64,NW,315,2.7,3.6,59,0.00,,,0.00,WUHU216HW,2013-02-05 15:52:00,
2013-02-05 10:53:00,22.1,9.9,29.64,West,270,1.1,3.6,59,0.00,,,0.00,WUHU216HW,2013-02-05 15:53:00,
2013-02-05 10:57:00,22.7,10.5,29.64,WNW,293,0.4,2.7,59,0.00,,,0.00,WUHU216HW,2013-02-05 15:57:00,
2013-02-05 10:58:00,22.7,10.5,29.64,WNW,293,0.0,2.7,59,0.00,,,0.00,WUHU216HW,2013-02-05 15:58:00,
2013-02-05 11:02:00,22.9,8.7,29.64,North,0,4.9,6.3,54,0.00,,,0.00,WUHU216HW,2013-02-05 16:02:00,
2013-02-05 11:03:00,22.7,8.5,29.64,NNW,338,1.8,6.3,54,0.00,,,0.00,WUHU216HW,2013-02-05 16:03:00,
2013-02-05 11:04:00,22.7,8.8,29.63,NNW,338,2.9,6.3,55,0.00,,,0.00,WUHU216HW,2013-02-05 16:04:00,
2013-02-05 11:07:00,22.7,8.8,29.63,North,0,2.0,6.3,55,0.00,,,0.00,WUHU216HW,2013-02-05 16:07:00,
2013-02-05 11:08:00,22.7,8.8,29.63,NW,315,1.6,6.3,55,0.00,,,0.00,WUHU216HW,2013-02-05 16:08:00,
2013-02-05 11:09:00,22.9,9.5,29.63,NNW,338,1.1,6.3,56,0.00,,,0.00,WUHU216HW,2013-02-05 16:09:00,
2013-02-05 11:12:00,23.2,9.7,29.63,NNE,23,1.3,2.9,56,0.00,,,0.00,WUHU216HW,2013-02-05 16:12:00,
2013-02-05 11:13:00,23.2,10.2,29.63,SW,225,0.4,2.9,57,0.00,,,0.00,WUHU216HW,2013-02-05 16:13:00,
2013-02-05 11:14:00,23.4,10.4,29.63,SW,225,2.5,2.5,57,0.00,,,0.00,WUHU216HW,2013-02-05 16:14:00,
2013-02-05 11:17:00,24.1,11.4,29.63,West,270,2.5,2.5,58,0.00,,,0.00,WUHU216HW,2013-02-05 16:17:00,
2013-02-05 11:18:00,24.3,12.0,29.63,SE,135,1.6,2.5,59,0.00,,,0.00,WUHU216HW,2013-02-05 16:18:00,
2013-02-05 11:19:00,24.7,12.3,29.63,SSW,203,2.0,2.5,59,0.00,,,0.00,WUHU216HW,2013-02-05 16:19:00,
2013-02-05 11:22:00,25.6,13.2,29.63,SSE,158,1.1,2.5,59,0.00,,,0.00,WUHU216HW,2013-02-05 16:22:00,
2013-02-05 11:23:00,25.6,13.2,29.63,ENE,68,2.5,2.5,59,0.00,,,0.00,WUHU216HW,2013-02-05 16:23:00,
2013-02-05 11:25:00,25.9,12.7,29.63,SW,225,1.3,2.5,57,0.00,,,0.00,WUHU216HW,2013-02-05 16:25:00,
2013-02-05 11:28:00,26.3,12.6,29.63,East,90,2.2,2.5,56,0.00,,,0.00,WUHU216HW,2013-02-05 16:28:00,
2013-02-05 11:30:00,26.1,11.2,29.63,NNE,23,2.9,2.9,53,0.00,,,0.00,WUHU216HW,2013-02-05 16:30:00,
2013-02-05 11:33:00,25.7,11.7,29.63,East,90,0.0,2.9,55,0.00,,,0.00,WUHU216HW,2013-02-05 16:33:00,
2013-02-05 11:35:00,25.6,12.0,29.62,SE,135,2.9,2.9,56,0.00,,,0.00,WUHU216HW,2013-02-05 16:35:00,
2013-02-05 11:38:00,25.9,12.7,29.62,SE,135,1.3,2.9,57,0.00,,,0.00,WUHU216HW,2013-02-05 16:38:00,
2013-02-05 11:40:00,26.1,12.4,29.62,SSW,203,0.4,2.9,56,0.00,,,0.00,WUHU216HW,2013-02-05 16:40:00,
2013-02-05 11:43:00,26.6,13.3,29.62,East,90,2.7,2.9,57,0.00,,,0.00,WUHU216HW,2013-02-05 16:43:00,
2013-02-05 11:45:00,26.6,13.0,29.62,SSE,158,2.5,2.7,56,0.00,,,0.00,WUHU216HW,2013-02-05 16:45:00,
2013-02-05 11:48:00,26.8,12.7,29.62,ESE,113,3.1,3.1,55,0.00,,,0.00,WUHU216HW,2013-02-05 16:48:00,
2013-02-05 11:50:00,26.8,12.2,29.62,East,90,0.4,3.1,54,0.00,,,0.00,WUHU216HW,2013-02-05 16:50:00,
2013-02-05 11:53:00,26.5,12.0,29.61,NE,45,2.5,3.1,54,0.00,,,0.00,WUHU216HW,2013-02-05 16:53:00,
2013-02-05 11:55:00,26.3,10.5,29.61,NNW,338,2.5,4.0,51,0.00,,,0.00,WUHU216HW,2013-02-05 16:55:00,
2013-02-05 11:58:00,25.4,9.3,29.61,ESE,113,2.5,5.4,50,0.00,,,0.00,WUHU216HW,2013-02-05 16:58:00,
2013-02-05 12:00:00,25.2,10.0,29.61,SE,135,1.1,5.4,52,0.00,,,0.00,WUHU216HW,2013-02-05 17:00:00,
2013-02-05 12:03:00,25.4,11.0,29.61,SSE,158,2.0,5.4,54,0.00,,,0.00,WUHU216HW,2013-02-05 17:03:00,
2013-02-05 12:04:00,25.6,11.2,29.61,SSW,203,1.1,5.4,54,0.00,,,0.00,WUHU216HW,2013-02-05 17:04:00,
2013-02-05 12:05:00,25.6,11.5,29.61,SSW,203,2.7,5.4,55,0.00,,,0.00,WUHU216HW,2013-02-05 17:05:00,
2013-02-05 12:09:00,26.5,12.3,29.60,South,180,1.6,2.7,55,0.00,,,0.00,WUHU216HW,2013-02-05 17:09:00,
2013-02-05 12:10:00,26.6,12.5,29.60,SW,225,1.1,2.7,55,0.00,,,0.00,WUHU216HW,2013-02-05 17:10:00,
2013-02-05 12:14:00,27.0,12.9,29.60,SSE,158,2.9,3.6,55,0.00,,,0.00,WUHU216HW,2013-02-05 17:14:00,
2013-02-05 12:15:00,27.0,12.9,29.60,SE,135,2.2,3.6,55,0.00,,,0.00,WUHU216HW,2013-02-05 17:15:00,
2013-02-05 12:19:00,27.0,12.1,29.60,NNE,23,2.7,3.6,53,0.00,,,0.00,WUHU216HW,2013-02-05 17:19:00,
2013-02-05 12:21:00,26.8,11.9,29.60,NNW,338,0.7,2.9,53,0.00,,,0.00,WUHU216HW,2013-02-05 17:21:00,
2013-02-05 12:24:00,26.1,10.0,29.59,North,0,5.1,6.5,50,0.00,,,0.00,WUHU216HW,2013-02-05 17:24:00,
2013-02-05 12:26:00,25.6,9.9,29.59,NNE,23,5.1,6.5,51,0.00,,,0.00,WUHU216HW,2013-02-05 17:26:00,
2013-02-05 12:29:00,25.0,9.8,29.59,NNE,23,0.2,6.5,52,0.00,,,0.00,WUHU216HW,2013-02-05 17:29:00,
2013-02-05 12:31:00,24.8,10.1,29.59,North,0,5.4,6.5,53,0.00,,,0.00,WUHU216HW,2013-02-05 17:31:00,
2013-02-05 12:34:00,24.8,10.1,29.58,NNW,338,0.2,5.4,53,0.00,,,0.00,WUHU216HW,2013-02-05 17:34:00,
2013-02-05 12:35:00,24.8,10.1,29.58,NNW,338,0.2,5.4,53,0.00,,,0.00,WUHU216HW,2013-02-05 17:35:00,
2013-02-05 12:36:00,24.8,10.1,29.58,NNW,338,1.6,5.4,53,0.00,,,0.00,WUHU216HW,2013-02-05 17:36:00,
2013-02-05 12:39:00,25.0,10.6,29.58,North,0,0.4,5.4,54,0.00,,,0.00,WUHU216HW,2013-02-05 17:39:00,
2013-02-05 12:40:00,25.0,10.6,29.58,WSW,248,2.0,5.4,54,0.00,,,0.00,WUHU216HW,2013-02-05 17:40:00,
2013-02-05 12:41:00,25.2,10.8,29.58,SSE,158,1.6,5.4,54,0.00,,,0.00,WUHU216HW,2013-02-05 17:41:00,
2013-02-05 12:45:00,25.4,11.3,29.58,SE,135,2.5,4.7,55,0.00,,,0.00,WUHU216HW,2013-02-05 17:45:00,
2013-02-05 12:46:00,25.6,11.5,29.58,SSE,158,1.8,4.7,55,0.00,,,0.00,WUHU216HW,2013-02-05 17:46:00,
2013-02-05 12:50:00,25.9,11.9,29.58,ESE,113,0.9,4.7,55,0.00,,,0.00,WUHU216HW,2013-02-05 17:50:00,
2013-02-05 12:51:00,26.1,12.1,29.58,NNE,23,4.0,4.7,55,0.00,,,0.00,WUHU216HW,2013-02-05 17:51:00,
2013-02-05 12:55:00,26.1,11.2,29.58,NNE,23,2.5,4.0,53,0.00,,,0.00,WUHU216HW,2013-02-05 17:55:00,
2013-02-05 12:56:00,25.9,11.1,29.58,ENE,68,1.6,4.0,53,0.00,,,0.00,WUHU216HW,2013-02-05 17:56:00,
2013-02-05 13:00:00,26.1,11.2,29.58,East,90,1.8,4.0,53,0.00,,,0.00,WUHU216HW,2013-02-05 18:00:00,
2013-02-05 13:01:00,26.3,11.3,29.58,NE,45,0.4,2.5,53,0.00,,,0.00,WUHU216HW,2013-02-05 18:01:00,
2013-02-05 13:05:00,26.3,11.3,29.58,ESE,113,1.6,2.7,53,0.00,,,0.00,WUHU216HW,2013-02-05 18:05:00,
2013-02-05 13:06:00,26.3,11.3,29.58,NW,315,0.4,2.7,53,0.00,,,0.00,WUHU216HW,2013-02-05 18:06:00,
2013-02-05 13:10:00,26.8,11.9,29.58,SSE,158,2.2,2.7,53,0.00,,,0.00,WUHU216HW,2013-02-05 18:10:00,
2013-02-05 13:12:00,27.0,12.4,29.58,SW,225,1.1,2.7,54,0.00,,,0.00,WUHU216HW,2013-02-05 18:12:00,
2013-02-05 13:15:00,27.7,13.1,29.58,NW,315,0.0,2.2,54,0.00,,,0.00,WUHU216HW,2013-02-05 18:15:00,
2013-02-05 13:16:00,28.1,13.5,29.58,SE,135,2.7,2.7,54,0.00,,,0.00,WUHU216HW,2013-02-05 18:16:00,
2013-02-05 13:17:00,28.3,13.7,29.58,SW,225,2.7,2.7,54,0.00,,,0.00,WUHU216HW,2013-02-05 18:17:00,
2013-02-05 13:20:00,28.6,14.0,29.58,SW,225,1.8,2.7,54,0.00,,,0.00,WUHU216HW,2013-02-05 18:20:00,
2013-02-05 13:21:00,29.0,14.4,29.58,South,180,1.3,2.7,54,0.00,,,0.00,WUHU216HW,2013-02-05 18:21:00,
2013-02-05 13:22:00,29.2,14.6,29.58,SW,225,0.9,2.7,54,0.00,,,0.00,WUHU216HW,2013-02-05 18:22:00,
2013-02-05 13:26:00,29.5,14.9,29.58,SW,225,1.8,2.7,54,0.00,,,0.00,WUHU216HW,2013-02-05 18:26:00,
2013-02-05 13:27:00,29.7,14.6,29.58,ESE,113,1.8,2.2,53,0.00,,,0.00,WUHU216HW,2013-02-05 18:27:00,
2013-02-05 13:31:00,29.9,14.8,29.58,WSW,248,0.2,1.8,53,0.00,,,0.00,WUHU216HW,2013-02-05 18:31:00,
2013-02-05 13:32:00,29.9,14.8,29.58,South,180,1.1,1.8,53,0.00,,,0.00,WUHU216HW,2013-02-05 18:32:00,
2013-02-05 13:36:00,29.9,14.4,29.57,ESE,113,2.5,3.1,52,0.00,,,0.00,WUHU216HW,2013-02-05 18:36:00,
2013-02-05 13:37:00,29.7,14.2,29.57,SSE,158,3.1,3.1,52,0.00,,,0.00,WUHU216HW,2013-02-05 18:37:00,
2013-02-05 13:41:00,29.7,13.8,29.57,NNE,23,1.3,4.0,51,0.00,,,0.00,WUHU216HW,2013-02-05 18:41:00,
2013-02-05 13:42:00,29.7,12.9,29.57,NE,45,3.8,4.0,49,0.00,,,0.00,WUHU216HW,2013-02-05 18:42:00,
2013-02-05 13:46:00,29.2,12.9,29.57,ESE,113,1.8,4.0,50,0.00,,,0.00,WUHU216HW,2013-02-05 18:46:00,
2013-02-05 13:47:00,29.0,12.3,29.57,East,90,3.1,4.0,49,0.00,,,0.00,WUHU216HW,2013-02-05 18:47:00,
2013-02-05 13:51:00,28.4,12.7,29.57,NW,315,0.9,3.8,51,0.00,,,0.00,WUHU216HW,2013-02-05 18:51:00,
2013-02-05 13:52:00,28.6,12.8,29.57,NNW,338,0.7,3.4,51,0.00,,,0.00,WUHU216HW,2013-02-05 18:52:00,
2013-02-05 13:56:00,28.8,13.4,29.56,ESE,113,3.1,3.1,52,0.00,,,0.00,WUHU216HW,2013-02-05 18:56:00,
2013-02-05 13:58:00,28.8,13.4,29.56,SE,135,1.6,3.1,52,0.00,,,0.00,WUHU216HW,2013-02-05 18:58:00,
2013-02-05 14:01:00,29.3,13.9,29.56,North,0,1.1,3.1,52,0.00,,,0.00,WUHU216HW,2013-02-05 19:01:00,
2013-02-05 14:02:00,29.5,14.0,29.56,SSW,203,0.4,3.1,52,0.00,,,0.00,WUHU216HW,2013-02-05 19:02:00,
2013-02-05 14:03:00,29.5,14.0,29.56,SSE,158,0.4,3.1,52,0.00,,,0.00,WUHU216HW,2013-02-05 19:03:00,
2013-02-05 14:06:00,29.5,14.0,29.56,SSW,203,3.4,3.4,52,0.00,,,0.00,WUHU216HW,2013-02-05 19:06:00,
2013-02-05 14:07:00,29.7,14.2,29.56,SSW,203,2.5,3.4,52,0.00,,,0.00,WUHU216HW,2013-02-05 19:07:00,
2013-02-05 14:08:00,29.9,14.4,29.56,SSW,203,1.8,3.4,52,0.00,,,0.00,WUHU216HW,2013-02-05 19:08:00,
2013-02-05 14:11:00,30.2,14.7,29.56,SSE,158,0.7,3.4,52,0.00,,,0.00,WUHU216HW,2013-02-05 19:11:00,
2013-02-05 14:12:00,30.4,14.9,29.56,North,0,0.7,3.4,52,0.00,,,0.00,WUHU216HW,2013-02-05 19:12:00,
2013-02-05 14:13:00,30.4,14.4,29.56,NE,45,1.3,3.4,51,0.00,,,0.00,WUHU216HW,2013-02-05 19:13:00,
2013-02-05 14:17:00,30.2,14.3,29.55,East,90,0.2,2.9,51,0.00,,,0.00,WUHU216HW,2013-02-05 19:17:00,
2013-02-05 14:19:00,30.2,14.3,29.55,SE,135,2.2,2.9,51,0.00,,,0.00,WUHU216HW,2013-02-05 19:19:00,
2013-02-05 14:21:00,30.1,14.1,29.55,South,180,2.5,2.9,51,0.00,,,0.00,WUHU216HW,2013-02-05 19:21:00,
2013-02-05 14:22:00,30.1,14.1,29.55,NNE,23,0.4,2.9,51,0.00,,,0.00,WUHU216HW,2013-02-05 19:22:00,
2013-02-05 14:24:00,30.2,14.3,29.55,ENE,68,0.2,2.9,51,0.00,,,0.00,WUHU216HW,2013-02-05 19:24:00,
2013-02-05 14:27:00,30.2,14.7,29.55,North,0,0.4,2.5,52,0.00,,,0.00,WUHU216HW,2013-02-05 19:27:00,
2013-02-05 14:28:00,30.1,14.1,29.55,ENE,68,0.7,2.5,51,0.00,,,0.00,WUHU216HW,2013-02-05 19:28:00,
2013-02-05 14:29:00,30.1,13.7,29.55,SE,135,3.6,3.6,50,0.00,,,0.00,WUHU216HW,2013-02-05 19:29:00,
2013-02-05 14:32:00,29.9,14.0,29.55,SE,135,0.4,3.6,51,0.00,,,0.00,WUHU216HW,2013-02-05 19:32:00,
2013-02-05 14:33:00,29.9,13.5,29.55,ESE,113,2.7,3.6,50,0.00,,,0.00,WUHU216HW,2013-02-05 19:33:00,
2013-02-05 14:34:00,29.9,13.5,29.55,ESE,113,1.8,3.6,50,0.00,,,0.00,WUHU216HW,2013-02-05 19:34:00,
2013-02-05 14:37:00,29.5,13.6,29.55,SE,135,0.2,3.6,51,0.00,,,0.00,WUHU216HW,2013-02-05 19:37:00,
2013-02-05 14:38:00,29.7,14.2,29.55,NNW,338,0.7,3.6,52,0.00,,,0.00,WUHU216HW,2013-02-05 19:38:00,
2013-02-05 14:39:00,29.7,14.2,29.55,North,0,0.7,3.4,52,0.00,,,0.00,WUHU216HW,2013-02-05 19:39:00,
2013-02-05 14:42:00,29.9,13.1,29.55,East,90,3.1,3.1,49,0.00,,,0.00,WUHU216HW,2013-02-05 19:42:00,
2013-02-05 14:43:00,29.9,13.5,29.55,SE,135,2.0,4.0,50,0.00,,,0.00,WUHU216HW,2013-02-05 19:43:00,
2013-02-05 14:44:00,29.9,13.5,29.55,SE,135,2.0,4.0,50,0.00,,,0.00,WUHU216HW,2013-02-05 19:44:00,
2013-02-05 14:47:00,30.2,14.3,29.55,SE,135,2.0,4.0,51,0.00,,,0.00,WUHU216HW,2013-02-05 19:47:00,
2013-02-05 14:48:00,30.2,14.3,29.55,SE,135,2.2,4.0,51,0.00,,,0.00,WUHU216HW,2013-02-05 19:48:00,
2013-02-05 14:49:00,30.4,14.4,29.55,SSE,158,3.1,4.0,51,0.00,,,0.00,WUHU216HW,2013-02-05 19:49:00,
2013-02-05 14:52:00,30.8,15.2,29.55,SSE,158,2.9,3.1,52,0.00,,,0.00,WUHU216HW,2013-02-05 19:52:00,
2013-02-05 14:53:00,30.8,14.8,29.55,SSE,158,2.5,3.1,51,0.00,,,0.00,WUHU216HW,2013-02-05 19:53:00,
2013-02-05 14:54:00,30.8,14.8,29.55,SSW,203,1.3,3.1,51,0.00,,,0.00,WUHU216HW,2013-02-05 19:54:00,
2013-02-05 14:57:00,30.6,14.6,29.55,SE,135,2.2,3.1,51,0.00,,,0.00,WUHU216HW,2013-02-05 19:57:00,
2013-02-05 14:58:00,30.6,14.2,29.55,SSW,203,0.4,3.1,50,0.00,,,0.00,WUHU216HW,2013-02-05 19:58:00,
2013-02-05 14:59:00,30.4,14.4,29.55,West,270,0.2,2.9,51,0.00,,,0.00,WUHU216HW,2013-02-05 19:59:00,
2013-02-05 15:02:00,30.4,14.4,29.55,WSW,248,0.0,2.7,51,0.00,,,0.00,WUHU216HW,2013-02-05 20:02:00,
2013-02-05 15:03:00,30.2,14.7,29.55,East,90,1.8,2.7,52,0.00,,,0.00,WUHU216HW,2013-02-05 20:03:00,
2013-02-05 15:05:00,30.2,13.9,29.55,East,90,3.1,3.1,50,0.00,,,0.00,WUHU216HW,2013-02-05 20:05:00,
2013-02-05 15:07:00,30.1,13.7,29.55,South,180,1.3,3.1,50,0.00,,,0.00,WUHU216HW,2013-02-05 20:07:00,
2013-02-05 15:08:00,29.9,14.0,29.54,South,180,1.8,3.1,51,0.00,,,0.00,WUHU216HW,2013-02-05 20:08:00,
2013-02-05 15:10:00,30.1,14.1,29.54,ESE,113,4.5,4.5,51,0.00,,,0.00,WUHU216HW,2013-02-05 20:10:00,
2013-02-05 15:12:00,30.1,14.1,29.54,SE,135,3.8,4.5,51,0.00,,,0.00,WUHU216HW,2013-02-05 20:12:00,
2013-02-05 15:13:00,30.1,14.1,29.54,SE,135,1.6,4.5,51,0.00,,,0.00,WUHU216HW,2013-02-05 20:13:00,
2013-02-05 15:15:00,29.9,14.4,29.54,East,90,1.3,4.5,52,0.00,,,0.00,WUHU216HW,2013-02-05 20:15:00,
2013-02-05 15:17:00,29.9,14.0,29.54,East,90,0.9,4.5,51,0.00,,,0.00,WUHU216HW,2013-02-05 20:17:00,
2013-02-05 15:18:00,29.7,13.8,29.54,East,90,0.4,4.5,51,0.00,,,0.00,WUHU216HW,2013-02-05 20:18:00,
2013-02-05 15:19:00,29.9,14.0,29.54,SE,135,0.9,4.5,51,0.00,,,0.00,WUHU216HW,2013-02-05 20:19:00,
2013-02-05 15:21:00,29.7,13.8,29.54,ESE,113,1.6,3.8,51,0.00,,,0.00,WUHU216HW,2013-02-05 20:21:00,
2013-02-05 15:22:00,29.3,13.5,29.54,SSE,158,1.1,2.0,51,0.00,,,0.00,WUHU216HW,2013-02-05 20:22:00,
2013-02-05 15:24:00,29.3,13.5,29.54,SE,135,1.1,2.0,51,0.00,,,0.00,WUHU216HW,2013-02-05 20:24:00,
2013-02-05 15:26:00,29.2,13.3,29.55,SE,135,1.1,2.0,51,0.00,,,0.00,WUHU216HW,2013-02-05 20:26:00,
2013-02-05 15:27:00,29.2,13.3,29.55,ESE,113,0.7,2.0,51,0.00,,,0.00,WUHU216HW,2013-02-05 20:27:00,
2013-02-05 15:29:00,29.2,13.7,29.55,SE,135,1.1,2.0,52,0.00,,,0.00,WUHU216HW,2013-02-05 20:29:00,
2013-02-05 15:30:00,29.0,13.6,29.55,SE,135,1.1,2.0,52,0.00,,,0.00,WUHU216HW,2013-02-05 20:30:00,
2013-02-05 15:32:00,29.0,13.6,29.55,SSE,158,0.0,1.1,52,0.00,,,0.00,WUHU216HW,2013-02-05 20:32:00,
2013-02-05 15:34:00,29.2,13.3,29.55,SE,135,2.2,2.2,51,0.00,,,0.00,WUHU216HW,2013-02-05 20:34:00,
2013-02-05 15:36:00,29.2,13.7,29.55,SSE,158,1.8,2.2,52,0.00,,,0.00,WUHU216HW,2013-02-05 20:36:00,
2013-02-05 15:37:00,29.2,13.7,29.55,SE,135,1.8,2.2,52,0.00,,,0.00,WUHU216HW,2013-02-05 20:37:00,
2013-02-05 15:39:00,29.2,13.7,29.55,South,180,2.7,2.7,52,0.00,,,0.00,WUHU216HW,2013-02-05 20:39:00,
2013-02-05 15:41:00,29.2,13.7,29.54,SSE,158,0.4,2.7,52,0.00,,,0.00,WUHU216HW,2013-02-05 20:41:00,
2013-02-05 15:43:00,29.2,13.7,29.55,South,180,1.1,2.7,52,0.00,,,0.00,WUHU216HW,2013-02-05 20:43:00,
2013-02-05 15:44:00,29.2,13.7,29.55,East,90,0.0,2.7,52,0.00,,,0.00,WUHU216HW,2013-02-05 20:44:00,
2013-02-05 15:46:00,29.2,13.7,29.55,ESE,113,1.6,2.7,52,0.00,,,0.00,WUHU216HW,2013-02-05 20:46:00,
2013-02-05 15:48:00,29.0,13.6,29.55,SE,135,0.9,2.7,52,0.00,,,0.00,WUHU216HW,2013-02-05 20:48:00,
2013-02-05 15:49:00,29.0,13.6,29.55,SE,135,0.4,1.6,52,0.00,,,0.00,WUHU216HW,2013-02-05 20:49:00,
2013-02-05 15:51:00,28.8,13.4,29.55,SSE,158,0.4,1.6,52,0.00,,,0.00,WUHU216HW,2013-02-05 20:51:00,
2013-02-05 15:53:00,28.8,13.4,29.55,SSE,158,0.7,1.6,52,0.00,,,0.00,WUHU216HW,2013-02-05 20:53:00,
2013-02-05 15:54:00,28.8,13.4,29.55,South,180,0.0,1.6,52,0.00,,,0.00,WUHU216HW,2013-02-05 20:54:00,
2013-02-05 15:56:00,28.6,13.2,29.55,SSE,158,1.3,1.3,52,0.00,,,0.00,WUHU216HW,2013-02-05 20:56:00,
2013-02-05 15:58:00,28.8,13.4,29.55,SSW,203,1.1,1.3,52,0.00,,,0.00,WUHU216HW,2013-02-05 20:58:00,
2013-02-05 15:59:00,28.6,13.2,29.55,SE,135,0.9,1.6,52,0.00,,,0.00,WUHU216HW,2013-02-05 20:59:00,
2013-02-05 16:00:00,28.6,13.2,29.55,SE,135,0.4,1.6,52,0.00,,,0.00,WUHU216HW,2013-02-05 21:00:00,
2013-02-05 16:01:00,28.6,13.2,29.55,South,180,1.8,1.8,52,0.00,,,0.00,WUHU216HW,2013-02-05 21:01:00,
2013-02-05 16:03:00,28.6,13.7,29.55,SE,135,0.4,1.8,53,0.00,,,0.00,WUHU216HW,2013-02-05 21:03:00,
2013-02-05 16:04:00,28.4,13.5,29.55,WSW,248,0.2,1.8,53,0.00,,,0.00,WUHU216HW,2013-02-05 21:04:00,
2013-02-05 16:05:00,28.4,13.5,29.55,SSE,158,0.9,1.8,53,0.00,,,0.00,WUHU216HW,2013-02-05 21:05:00,
2013-02-05 16:06:00,28.4,13.5,29.55,SE,135,0.4,1.8,53,0.00,,,0.00,WUHU216HW,2013-02-05 21:06:00,
2013-02-05 16:08:00,28.4,13.5,29.55,SE,135,1.6,2.0,53,0.00,,,0.00,WUHU216HW,2013-02-05 21:08:00,
2013-02-05 16:09:00,28.3,13.3,29.55,East,90,1.1,2.0,53,0.00,,,0.00,WUHU216HW,2013-02-05 21:09:00,
2013-02-05 16:10:00,28.3,12.9,29.55,NNE,23,0.4,2.0,52,0.00,,,0.00,WUHU216HW,2013-02-05 21:10:00,
2013-02-05 16:11:00,28.1,12.7,29.55,NNE,23,0.0,2.0,52,0.00,,,0.00,WUHU216HW,2013-02-05 21:11:00,
2013-02-05 16:13:00,28.1,12.7,29.55,NNE,23,0.0,2.0,52,0.00,,,0.00,WUHU216HW,2013-02-05 21:13:00,
2013-02-05 16:14:00,27.9,12.5,29.54,NNE,23,0.0,2.0,52,0.00,,,0.00,WUHU216HW,2013-02-05 21:14:00,
2013-02-05 16:15:00,27.9,12.5,29.54,NNE,23,0.0,2.0,52,0.00,,,0.00,WUHU216HW,2013-02-05 21:15:00,
2013-02-05 16:16:00,27.9,12.5,29.54,East,90,0.9,2.0,52,0.00,,,0.00,WUHU216HW,2013-02-05 21:16:00,
2013-02-05 16:18:00,27.7,12.8,29.54,SE,135,0.4,1.1,53,0.00,,,0.00,WUHU216HW,2013-02-05 21:18:00,
2013-02-05 16:19:00,27.7,12.8,29.54,East,90,1.1,1.1,53,0.00,,,0.00,WUHU216HW,2013-02-05 21:19:00,
2013-02-05 16:20:00,27.7,12.8,29.54,SE,135,0.9,1.1,53,0.00,,,0.00,WUHU216HW,2013-02-05 21:20:00,
2013-02-05 16:21:00,27.7,12.8,29.54,South,180,0.0,1.1,53,0.00,,,0.00,WUHU216HW,2013-02-05 21:21:00,
2013-02-05 16:24:00,27.5,12.6,29.54,East,90,0.2,1.1,53,0.00,,,0.00,WUHU216HW,2013-02-05 21:24:00,
2013-02-05 16:25:00,27.5,12.6,29.54,East,90,0.2,1.1,53,0.00,,,0.00,WUHU216HW,2013-02-05 21:25:00,
2013-02-05 16:26:00,27.5,12.6,29.54,ENE,68,0.2,1.1,53,0.00,,,0.00,WUHU216HW,2013-02-05 21:26:00,
2013-02-05 16:29:00,27.4,12.4,29.54,NE,45,0.4,1.1,53,0.00,,,0.00,WUHU216HW,2013-02-05 21:29:00,
2013-02-05 16:30:00,27.4,12.4,29.54,NE,45,0.4,1.1,53,0.00,,,0.00,WUHU216HW,2013-02-05 21:30:00,
2013-02-05 16:31:00,27.4,12.4,29.54,ESE,113,0.7,1.1,53,0.00,,,0.00,WUHU216HW,2013-02-05 21:31:00,
2013-02-05 16:34:00,27.0,12.1,29.54,ESE,113,1.6,1.6,53,0.00,,,0.00,WUHU216HW,2013-02-05 21:34:00,
2013-02-05 16:35:00,27.0,12.1,29.54,ESE,113,1.6,1.6,53,0.00,,,0.00,WUHU216HW,2013-02-05 21:35:00,
2013-02-05 16:36:00,27.0,12.1,29.54,SE,135,0.7,1.6,53,0.00,,,0.00,WUHU216HW,2013-02-05 21:36:00,
2013-02-05 16:39:00,27.0,12.4,29.54,SE,135,0.4,1.8,54,0.00,,,0.00,WUHU216HW,2013-02-05 21:39:00,
2013-02-05 16:40:00,27.0,12.4,29.54,SE,135,0.4,1.8,54,0.00,,,0.00,WUHU216HW,2013-02-05 21:40:00,
2013-02-05 16:41:00,27.0,12.4,29.54,ESE,113,0.9,1.8,54,0.00,,,0.00,WUHU216HW,2013-02-05 21:41:00,
2013-02-05 16:42:00,27.0,12.4,29.54,ESE,113,0.9,1.8,54,0.00,,,0.00,WUHU216HW,2013-02-05 21:42:00,
2013-02-05 16:44:00,26.8,12.2,29.54,SE,135,1.1,1.8,54,0.00,,,0.00,WUHU216HW,2013-02-05 21:44:00,
2013-02-05 16:45:00,26.8,12.2,29.54,SE,135,1.1,1.8,54,0.00,,,0.00,WUHU216HW,2013-02-05 21:45:00,
2013-02-05 16:46:00,26.6,12.1,29.53,SE,135,0.9,1.8,54,0.00,,,0.00,WUHU216HW,2013-02-05 21:46:00,
2013-02-05 16:47:00,26.6,12.1,29.53,SE,135,0.9,1.8,54,0.00,,,0.00,WUHU216HW,2013-02-05 21:47:00,
2013-02-05 16:49:00,26.5,12.0,29.54,SE,135,0.7,1.1,54,0.00,,,0.00,WUHU216HW,2013-02-05 21:49:00,
2013-02-05 16:50:00,26.5,12.0,29.54,SE,135,0.7,1.1,54,0.00,,,0.00,WUHU216HW,2013-02-05 21:50:00,
2013-02-05 16:51:00,26.5,12.0,29.53,ESE,113,1.1,1.1,54,0.00,,,0.00,WUHU216HW,2013-02-05 21:51:00,
2013-02-05 16:52:00,26.3,11.8,29.53,East,90,0.9,1.1,54,0.00,,,0.00,WUHU216HW,2013-02-05 21:52:00,
2013-02-05 16:55:00,26.3,11.8,29.53,SE,135,0.4,1.1,54,0.00,,,0.00,WUHU216HW,2013-02-05 21:55:00,
2013-02-05 16:56:00,26.3,12.2,29.53,SE,135,0.0,1.1,55,0.00,,,0.00,WUHU216HW,2013-02-05 21:56:00,
2013-02-05 16:57:00,26.3,12.2,29.53,ESE,113,0.7,1.1,55,0.00,,,0.00,WUHU216HW,2013-02-05 21:57:00,
2013-02-05 17:00:00,26.3,12.2,29.54,ESE,113,0.0,1.1,55,0.00,,,0.00,WUHU216HW,2013-02-05 22:00:00,
2013-02-05 17:01:00,26.1,12.1,29.53,SE,135,0.0,0.9,55,0.00,,,0.00,WUHU216HW,2013-02-05 22:01:00,
2013-02-05 17:03:00,26.1,12.1,29.53,ESE,113,0.0,0.9,55,0.00,,,0.00,WUHU216HW,2013-02-05 22:03:00,
2013-02-05 17:05:00,26.1,12.1,29.53,ESE,113,0.0,0.7,55,0.00,,,0.00,WUHU216HW,2013-02-05 22:05:00,
2013-02-05 17:07:00,26.1,12.1,29.53,ESE,113,0.0,0.7,55,0.00,,,0.00,WUHU216HW,2013-02-05 22:07:00,
2013-02-05 17:08:00,25.9,11.9,29.53,ESE,113,0.0,0.7,55,0.00,,,0.00,WUHU216HW,2013-02-05 22:08:00,
2013-02-05 17:10:00,25.9,11.9,29.53,ESE,113,0.0,0.0,55,0.00,,,0.00,WUHU216HW,2013-02-05 22:10:00,
2013-02-05 17:12:00,25.9,12.2,29.53,ESE,113,0.0,0.0,56,0.00,,,0.00,WUHU216HW,2013-02-05 22:12:00,
2013-02-05 17:13:00,25.9,12.2,29.53,ESE,113,0.0,0.0,56,0.00,,,0.00,WUHU216HW,2013-02-05 22:13:00,
2013-02-05 17:15:00,25.7,12.2,29.53,ESE,113,0.0,0.0,56,0.00,,,0.00,WUHU216HW,2013-02-05 22:15:00,
2013-02-05 17:17:00,25.7,12.2,29.53,ESE,113,0.0,0.0,56,0.00,,,0.00,WUHU216HW,2013-02-05 22:17:00,
2013-02-05 17:18:00,25.6,12.0,29.53,ESE,113,0.0,0.0,56,0.00,,,0.00,WUHU216HW,2013-02-05 22:18:00,
2013-02-05 17:20:00,25.6,12.0,29.53,ESE,113,0.0,0.0,56,0.00,,,0.00,WUHU216HW,2013-02-05 22:20:00,
2013-02-05 17:22:00,25.6,12.0,29.53,ESE,113,0.0,0.0,56,0.00,,,0.00,WUHU216HW,2013-02-05 22:22:00,
2013-02-05 17:23:00,25.6,12.0,29.53,ESE,113,0.0,0.0,56,0.00,,,0.00,WUHU216HW,2013-02-05 22:23:00,
2013-02-05 17:25:00,25.6,12.0,29.53,ESE,113,0.0,0.0,56,0.00,,,0.00,WUHU216HW,2013-02-05 22:25:00,
2013-02-05 17:27:00,25.6,12.0,29.53,ESE,113,0.0,0.0,56,0.00,,,0.00,WUHU216HW,2013-02-05 22:27:00,
2013-02-05 17:28:00,25.4,11.8,29.53,ESE,113,0.2,0.2,56,0.00,,,0.00,WUHU216HW,2013-02-05 22:28:00,
2013-02-05 17:30:00,25.4,11.8,29.53,ESE,113,0.0,0.2,56,0.00,,,0.00,WUHU216HW,2013-02-05 22:30:00,
2013-02-05 17:31:00,25.4,11.8,29.53,ESE,113,0.0,0.2,56,0.00,,,0.00,WUHU216HW,2013-02-05 22:31:00,
2013-02-05 17:32:00,25.4,12.3,29.53,ESE,113,0.0,0.2,57,0.00,,,0.00,WUHU216HW,2013-02-05 22:32:00,
2013-02-05 17:33:00,25.4,12.3,29.53,ESE,113,0.0,0.2,57,0.00,,,0.00,WUHU216HW,2013-02-05 22:33:00,
2013-02-05 17:36:00,25.2,12.1,29.53,ESE,113,0.0,0.2,57,0.00,,,0.00,WUHU216HW,2013-02-05 22:36:00,
2013-02-05 17:37:00,25.2,12.1,29.53,ESE,113,0.4,0.4,57,0.00,,,0.00,WUHU216HW,2013-02-05 22:37:00,
2013-02-05 17:38:00,25.2,12.1,29.53,ESE,113,0.4,0.4,57,0.00,,,0.00,WUHU216HW,2013-02-05 22:38:00,
2013-02-05 17:41:00,25.2,12.1,29.53,ESE,113,0.0,0.4,57,0.00,,,0.00,WUHU216HW,2013-02-05 22:41:00,
2013-02-05 17:42:00,25.2,12.1,29.53,ESE,113,0.0,0.4,57,0.00,,,0.00,WUHU216HW,2013-02-05 22:42:00,
2013-02-05 17:43:00,25.0,11.9,29.53,ESE,113,0.0,0.4,57,0.00,,,0.00,WUHU216HW,2013-02-05 22:43:00,
2013-02-05 17:46:00,25.0,11.9,29.53,ESE,113,0.0,0.4,57,0.00,,,0.00,WUHU216HW,2013-02-05 22:46:00,
2013-02-05 17:47:00,25.0,11.9,29.53,ESE,113,0.0,0.4,57,0.00,,,0.00,WUHU216HW,2013-02-05 22:47:00,
2013-02-05 17:49:00,25.0,11.9,29.53,ESE,113,0.0,0.4,57,0.00,,,0.00,WUHU216HW,2013-02-05 22:49:00,
2013-02-05 17:51:00,24.8,12.2,29.53,ESE,113,0.0,0.0,58,0.00,,,0.00,WUHU216HW,2013-02-05 22:51:00,
2013-02-05 17:52:00,24.8,12.2,29.53,ESE,113,0.0,0.0,58,0.00,,,0.00,WUHU216HW,2013-02-05 22:52:00,
2013-02-05 17:54:00,24.8,12.2,29.53,ESE,113,0.0,0.0,58,0.00,,,0.00,WUHU216HW,2013-02-05 22:54:00,
2013-02-05 17:56:00,24.8,12.2,29.53,ESE,113,0.0,0.0,58,0.00,,,0.00,WUHU216HW,2013-02-05 22:56:00,
2013-02-05 17:57:00,24.8,12.2,29.53,ESE,113,0.0,0.0,58,0.00,,,0.00,WUHU216HW,2013-02-05 22:57:00,
2013-02-05 17:59:00,24.8,12.2,29.53,ESE,113,0.0,0.4,58,0.00,,,0.00,WUHU216HW,2013-02-05 22:59:00,
2013-02-05 18:01:00,24.7,12.0,29.53,ESE,113,0.0,0.4,58,0.00,,,0.00,WUHU216HW,2013-02-05 23:01:00,
2013-02-05 18:02:00,24.7,12.0,29.53,ESE,113,0.0,0.4,58,0.00,,,0.00,WUHU216HW,2013-02-05 23:02:00,
2013-02-05 18:04:00,24.7,12.0,29.53,ESE,113,0.0,0.4,58,0.00,,,0.00,WUHU216HW,2013-02-05 23:04:00,
2013-02-05 18:06:00,24.5,11.8,29.53,ESE,113,0.0,0.4,58,0.00,,,0.00,WUHU216HW,2013-02-05 23:06:00,
2013-02-05 18:07:00,24.5,12.2,29.53,ESE,113,0.0,0.4,59,0.00,,,0.00,WUHU216HW,2013-02-05 23:07:00,
2013-02-05 18:09:00,24.3,12.0,29.53,ESE,113,0.0,0.0,59,0.00,,,0.00,WUHU216HW,2013-02-05 23:09:00,
2013-02-05 18:11:00,24.3,12.0,29.53,ESE,113,0.0,0.0,59,0.00,,,0.00,WUHU216HW,2013-02-05 23:11:00,
2013-02-05 18:12:00,24.3,12.0,29.53,ESE,113,0.0,0.0,59,0.00,,,0.00,WUHU216HW,2013-02-05 23:12:00,
2013-02-05 18:13:00,24.1,11.8,29.53,ESE,113,0.0,0.0,59,0.00,,,0.00,WUHU216HW,2013-02-05 23:13:00,
2013-02-05 18:14:00,24.1,11.8,29.53,ESE,113,0.0,0.0,59,0.00,,,0.00,WUHU216HW,2013-02-05 23:14:00,
2013-02-05 18:16:00,24.1,11.8,29.53,ESE,113,0.0,0.0,59,0.00,,,0.00,WUHU216HW,2013-02-05 23:16:00,
2013-02-05 18:17:00,24.1,11.8,29.53,ESE,113,0.0,0.0,59,0.00,,,0.00,WUHU216HW,2013-02-05 23:17:00,
2013-02-05 18:18:00,24.1,11.8,29.53,ESE,113,0.0,0.0,59,0.00,,,0.00,WUHU216HW,2013-02-05 23:18:00,
2013-02-05 18:19:00,24.1,11.8,29.53,ESE,113,0.0,0.0,59,0.00,,,0.00,WUHU216HW,2013-02-05 23:19:00,
2013-02-05 18:21:00,23.9,11.6,29.53,ESE,113,0.0,0.0,59,0.00,,,0.00,WUHU216HW,2013-02-05 23:21:00,
2013-02-05 18:22:00,23.9,11.6,29.53,ESE,113,0.0,0.0,59,0.00,,,0.00,WUHU216HW,2013-02-05 23:22:00,
2013-02-05 18:23:00,23.9,11.6,29.53,ESE,113,0.0,0.0,59,0.00,,,0.00,WUHU216HW,2013-02-05 23:23:00,
2013-02-05 18:24:00,23.9,11.6,29.53,ESE,113,0.0,0.0,59,0.00,,,0.00,WUHU216HW,2013-02-05 23:24:00,
2013-02-05 18:27:00,23.9,11.6,29.53,ESE,113,0.0,0.0,59,0.00,,,0.00,WUHU216HW,2013-02-05 23:27:00,
2013-02-05 18:28:00,23.8,11.5,29.53,ESE,113,0.0,0.0,59,0.00,,,0.00,WUHU216HW,2013-02-05 23:28:00,
2013-02-05 18:29:00,23.8,11.5,29.53,ESE,113,0.0,0.0,59,0.00,,,0.00,WUHU216HW,2013-02-05 23:29:00,
2013-02-05 18:32:00,23.8,11.5,29.53,ESE,113,0.0,0.0,59,0.00,,,0.00,WUHU216HW,2013-02-05 23:32:00,
2013-02-05 18:33:00,23.8,11.5,29.53,ESE,113,0.0,0.0,59,0.00,,,0.00,WUHU216HW,2013-02-05 23:33:00,
2013-02-05 18:34:00,23.8,11.5,29.53,ESE,113,0.0,0.0,59,0.00,,,0.00,WUHU216HW,2013-02-05 23:34:00,
2013-02-05 18:37:00,23.6,11.4,29.53,ESE,113,0.0,0.0,59,0.00,,,0.00,WUHU216HW,2013-02-05 23:37:00,
2013-02-05 18:38:00,23.6,11.4,29.53,ESE,113,0.0,0.0,59,0.00,,,0.00,WUHU216HW,2013-02-05 23:38:00,
2013-02-05 18:39:00,23.6,11.4,29.53,South,180,0.0,0.0,59,0.00,,,0.00,WUHU216HW,2013-02-05 23:39:00,
2013-02-05 18:42:00,23.6,11.4,29.53,South,180,0.4,0.4,59,0.00,,,0.00,WUHU216HW,2013-02-05 23:42:00,
2013-02-05 18:43:00,23.6,11.4,29.53,South,180,0.4,0.4,59,0.00,,,0.00,WUHU216HW,2013-02-05 23:43:00,
2013-02-05 18:44:00,23.4,11.2,29.53,South,180,0.0,0.4,59,0.00,,,0.00,WUHU216HW,2013-02-05 23:44:00,
2013-02-05 18:47:00,23.4,11.2,29.53,South,180,0.4,0.4,59,0.00,,,0.00,WUHU216HW,2013-02-05 23:47:00,
2013-02-05 18:48:00,23.4,11.2,29.53,South,180,0.4,0.4,59,0.00,,,0.00,WUHU216HW,2013-02-05 23:48:00,
2013-02-05 18:49:00,23.4,11.2,29.53,South,180,0.4,0.4,59,0.00,,,0.00,WUHU216HW,2013-02-05 23:49:00,
2013-02-05 18:50:00,23.4,11.2,29.53,South,180,1.1,1.1,59,0.00,,,0.00,WUHU216HW,2013-02-05 23:50:00,
2013-02-05 18:53:00,23.4,11.5,29.54,South,180,1.3,1.3,60,0.00,,,0.00,WUHU216HW,2013-02-05 23:53:00,
2013-02-05 18:54:00,23.4,11.5,29.54,SSE,158,0.9,1.3,60,0.00,,,0.00,WUHU216HW,2013-02-05 23:54:00,
2013-02-05 18:55:00,23.4,11.5,29.54,SSE,158,0.7,1.3,60,0.00,,,0.00,WUHU216HW,2013-02-05 23:55:00,
2013-02-05 18:58:00,23.4,11.5,29.54,SSE,158,0.4,1.3,60,0.00,,,0.00,WUHU216HW,2013-02-05 23:58:00,
2013-02-05 18:59:00,23.2,11.3,29.54,SSE,158,0.4,1.3,60,0.00,,,0.00,WUHU216HW,2013-02-05 23:59:00,
2013-02-05 19:00:00,23.2,11.3,29.54,SSE,158,0.4,1.3,60,0.00,,,0.00,WUHU216HW,2013-02-06 00:00:00,
2013-02-05 19:03:00,23.2,11.3,29.54,SSE,158,0.2,0.9,60,0.00,,,0.00,WUHU216HW,2013-02-06 00:03:00,
2013-02-05 19:04:00,23.2,11.3,29.54,SSE,158,0.4,0.7,60,0.00,,,0.00,WUHU216HW,2013-02-06 00:04:00,
2013-02-05 19:06:00,23.2,11.3,29.54,SSE,158,0.0,0.7,60,0.00,,,0.00,WUHU216HW,2013-02-06 00:06:00,
2013-02-05 19:08:00,23.0,11.2,29.55,SSE,158,0.9,0.9,60,0.00,,,0.00,WUHU216HW,2013-02-06 00:08:00,
2013-02-05 19:09:00,23.0,11.2,29.54,South,180,0.7,0.9,60,0.00,,,0.00,WUHU216HW,2013-02-06 00:09:00,
2013-02-05 19:11:00,23.0,11.2,29.54,SSE,158,0.4,0.9,60,0.00,,,0.00,WUHU216HW,2013-02-06 00:11:00,
2013-02-05 19:13:00,23.0,11.2,29.55,SSE,158,0.4,0.9,60,0.00,,,0.00,WUHU216HW,2013-02-06 00:13:00,
2013-02-05 19:14:00,23.0,11.2,29.55,SSE,158,0.4,0.9,60,0.00,,,0.00,WUHU216HW,2013-02-06 00:14:00,
2013-02-05 19:16:00,23.0,11.5,29.55,SSE,158,0.0,0.9,61,0.00,,,0.00,WUHU216HW,2013-02-06 00:16:00,
2013-02-05 19:18:00,23.0,11.5,29.54,SE,135,0.0,0.7,61,0.00,,,0.00,WUHU216HW,2013-02-06 00:18:00,
2013-02-05 19:19:00,23.0,11.5,29.54,SE,135,0.0,0.4,61,0.00,,,0.00,WUHU216HW,2013-02-06 00:19:00,
2013-02-05 19:21:00,23.2,11.7,29.54,SE,135,0.7,0.7,61,0.00,,,0.00,WUHU216HW,2013-02-06 00:21:00,
2013-02-05 19:23:00,23.2,11.7,29.54,SE,135,0.7,0.7,61,0.00,,,0.00,WUHU216HW,2013-02-06 00:23:00,
2013-02-05 19:24:00,23.2,11.7,29.54,SE,135,0.7,0.7,61,0.00,,,0.00,WUHU216HW,2013-02-06 00:24:00,
2013-02-05 19:26:00,23.4,11.9,29.54,SE,135,0.0,0.7,61,0.00,,,0.00,WUHU216HW,2013-02-06 00:26:00,
2013-02-05 19:28:00,23.4,11.9,29.55,SE,135,0.0,0.7,61,0.00,,,0.00,WUHU216HW,2013-02-06 00:28:00,
2013-02-05 19:29:00,23.4,11.9,29.55,SE,135,0.0,0.7,61,0.00,,,0.00,WUHU216HW,2013-02-06 00:29:00,
2013-02-05 19:31:00,23.4,11.9,29.54,SE,135,0.0,0.7,61,0.00,,,0.00,WUHU216HW,2013-02-06 00:31:00,
2013-02-05 19:33:00,23.4,11.9,29.54,SE,135,0.0,0.4,61,0.00,,,0.00,WUHU216HW,2013-02-06 00:33:00,
2013-02-05 19:34:00,23.4,11.9,29.54,SE,135,0.0,0.4,61,0.00,,,0.00,WUHU216HW,2013-02-06 00:34:00,
2013-02-05 19:36:00,23.6,12.1,29.54,SSE,158,0.7,0.7,61,0.00,,,0.00,WUHU216HW,2013-02-06 00:36:00,
2013-02-05 19:38:00,23.6,12.1,29.54,SE,135,0.4,0.7,61,0.00,,,0.00,WUHU216HW,2013-02-06 00:38:00,
2013-02-05 19:39:00,23.6,12.1,29.54,SE,135,0.4,0.7,61,0.00,,,0.00,WUHU216HW,2013-02-06 00:39:00,
2013-02-05 19:41:00,23.6,12.1,29.54,SE,135,0.4,0.7,61,0.00,,,0.00,WUHU216HW,2013-02-06 00:41:00,
2013-02-05 19:43:00,23.6,12.1,29.54,SE,135,0.4,0.7,61,0.00,,,0.00,WUHU216HW,2013-02-06 00:43:00,
2013-02-05 19:44:00,23.6,12.1,29.54,SE,135,0.4,0.7,61,0.00,,,0.00,WUHU216HW,2013-02-06 00:44:00,
2013-02-05 19:46:00,23.6,12.1,29.55,SE,135,0.2,0.4,61,0.00,,,0.00,WUHU216HW,2013-02-06 00:46:00,
2013-02-05 19:49:00,23.8,12.3,29.54,SE,135,0.4,0.4,61,0.00,,,0.00,WUHU216HW,2013-02-06 00:49:00,
2013-02-05 19:51:00,23.8,12.6,29.54,SSE,158,0.7,0.7,62,0.00,,,0.00,WUHU216HW,2013-02-06 00:51:00,
2013-02-05 19:54:00,23.8,12.6,29.54,SE,135,0.0,0.7,62,0.00,,,0.00,WUHU216HW,2013-02-06 00:54:00,
2013-02-05 19:56:00,23.8,12.6,29.54,SSE,158,0.2,0.7,62,0.00,,,0.00,WUHU216HW,2013-02-06 00:56:00,
2013-02-05 19:59:00,23.8,12.6,29.54,SSE,158,0.0,0.7,62,0.00,,,0.00,WUHU216HW,2013-02-06 00:59:00,
2013-02-05 20:01:00,23.8,12.6,29.54,SE,135,0.4,0.4,62,0.00,,,0.00,WUHU216HW,2013-02-06 01:01:00,
2013-02-05 20:04:00,23.9,12.8,29.54,SE,135,0.0,0.4,62,0.00,,,0.00,WUHU216HW,2013-02-06 01:04:00,
2013-02-05 20:06:00,23.9,12.8,29.54,SE,135,0.0,0.4,62,0.00,,,0.00,WUHU216HW,2013-02-06 01:06:00,
2013-02-05 20:09:00,23.9,12.8,29.54,SE,135,0.0,0.4,62,0.00,,,0.00,WUHU216HW,2013-02-06 01:09:00,
2013-02-05 20:10:00,23.9,12.8,29.54,SE,135,0.0,0.4,62,0.00,,,0.00,WUHU216HW,2013-02-06 01:10:00,
2013-02-05 20:11:00,23.9,12.8,29.54,SE,135,0.0,0.0,62,0.00,,,0.00,WUHU216HW,2013-02-06 01:11:00,
2013-02-05 20:14:00,23.9,12.8,29.54,SE,135,0.0,0.0,62,0.00,,,0.00,WUHU216HW,2013-02-06 01:14:00,
2013-02-05 20:15:00,23.9,12.8,29.54,SE,135,0.0,0.0,62,0.00,,,0.00,WUHU216HW,2013-02-06 01:15:00,
2013-02-05 20:16:00,23.9,12.8,29.54,SE,135,0.0,0.0,62,0.00,,,0.00,WUHU216HW,2013-02-06 01:16:00,
2013-02-05 20:19:00,23.9,12.8,29.54,SE,135,0.4,0.4,62,0.00,,,0.00,WUHU216HW,2013-02-06 01:19:00,
2013-02-05 20:20:00,23.9,12.8,29.54,SE,135,0.4,0.4,62,0.00,,,0.00,WUHU216HW,2013-02-06 01:20:00,
2013-02-05 20:21:00,23.9,12.8,29.54,SE,135,0.0,0.4,62,0.00,,,0.00,WUHU216HW,2013-02-06 01:21:00,
2013-02-05 20:24:00,23.9,12.8,29.54,East,90,0.0,0.4,62,0.00,,,0.00,WUHU216HW,2013-02-06 01:24:00,
2013-02-05 20:25:00,23.9,12.8,29.54,East,90,0.0,0.4,62,0.00,,,0.00,WUHU216HW,2013-02-06 01:25:00,
2013-02-05 20:26:00,24.1,13.0,29.54,ESE,113,0.4,0.4,62,0.00,,,0.00,WUHU216HW,2013-02-06 01:26:00,
2013-02-05 20:29:00,24.1,13.0,29.53,ESE,113,0.0,0.4,62,0.00,,,0.00,WUHU216HW,2013-02-06 01:29:00,
2013-02-05 20:30:00,24.1,13.0,29.53,ESE,113,0.0,0.4,62,0.00,,,0.00,WUHU216HW,2013-02-06 01:30:00,
2013-02-05 20:32:00,24.1,13.0,29.53,SE,135,0.4,0.4,62,0.00,,,0.00,WUHU216HW,2013-02-06 01:32:00,
2013-02-05 20:34:00,24.1,13.0,29.53,SE,135,0.0,0.7,62,0.00,,,0.00,WUHU216HW,2013-02-06 01:34:00,
2013-02-05 20:35:00,24.1,13.0,29.53,SE,135,0.0,0.7,62,0.00,,,0.00,WUHU216HW,2013-02-06 01:35:00,
2013-02-05 20:36:00,24.1,13.0,29.53,SE,135,0.4,0.7,62,0.00,,,0.00,WUHU216HW,2013-02-06 01:36:00,
2013-02-05 20:37:00,24.1,13.0,29.53,SSE,158,0.4,0.7,62,0.00,,,0.00,WUHU216HW,2013-02-06 01:37:00,
2013-02-05 20:39:00,24.1,13.0,29.53,SSE,158,0.4,0.7,62,0.00,,,0.00,WUHU216HW,2013-02-06 01:39:00,
2013-02-05 20:40:00,24.1,13.0,29.53,SSE,158,0.4,0.7,62,0.00,,,0.00,WUHU216HW,2013-02-06 01:40:00,
2013-02-05 20:41:00,24.1,13.0,29.53,South,180,0.9,0.9,62,0.00,,,0.00,WUHU216HW,2013-02-06 01:41:00,
2013-02-05 20:42:00,24.1,13.0,29.53,SSW,203,0.9,0.9,62,0.00,,,0.00,WUHU216HW,2013-02-06 01:42:00,
2013-02-05 20:44:00,24.1,13.0,29.53,South,180,0.4,1.1,62,0.00,,,0.00,WUHU216HW,2013-02-06 01:44:00,
2013-02-05 20:45:00,24.1,13.0,29.53,South,180,1.1,1.1,62,0.00,,,0.00,WUHU216HW,2013-02-06 01:45:00,
2013-02-05 20:46:00,24.1,13.0,29.53,South,180,1.1,1.1,62,0.00,,,0.00,WUHU216HW,2013-02-06 01:46:00,
2013-02-05 20:47:00,24.1,13.3,29.53,South,180,0.9,1.3,63,0.00,,,0.00,WUHU216HW,2013-02-06 01:47:00,
2013-02-05 20:50:00,24.1,13.3,29.53,South,180,1.1,1.6,63,0.00,,,0.00,WUHU216HW,2013-02-06 01:50:00,
2013-02-05 20:51:00,24.1,13.3,29.53,South,180,1.3,1.8,63,0.00,,,0.00,WUHU216HW,2013-02-06 01:51:00,
2013-02-05 20:52:00,24.1,13.3,29.53,South,180,1.1,1.8,63,0.00,,,0.00,WUHU216HW,2013-02-06 01:52:00,
2013-02-05 20:54:00,23.9,13.2,29.53,South,180,0.9,1.8,63,0.00,,,0.00,WUHU216HW,2013-02-06 01:54:00,
2013-02-05 20:55:00,23.9,13.2,29.53,South,180,0.9,1.8,63,0.00,,,0.00,WUHU216HW,2013-02-06 01:55:00,
2013-02-05 20:57:00,23.9,13.5,29.53,South,180,1.1,1.8,64,0.00,,,0.00,WUHU216HW,2013-02-06 01:57:00,
2013-02-05 20:59:00,23.9,13.5,29.53,SE,135,0.4,1.8,64,0.00,,,0.00,WUHU216HW,2013-02-06 01:59:00,
2013-02-05 21:00:00,23.9,13.5,29.53,SE,135,0.4,1.8,64,0.00,,,0.00,WUHU216HW,2013-02-06 02:00:00,
2013-02-05 21:02:00,23.9,13.5,29.53,SSE,158,0.4,1.1,64,0.00,,,0.00,WUHU216HW,2013-02-06 02:02:00,
2013-02-05 21:05:00,23.9,13.5,29.53,South,180,1.3,1.3,64,0.00,,,0.00,WUHU216HW,2013-02-06 02:05:00,
2013-02-05 21:07:00,23.9,13.5,29.53,SSE,158,2.2,2.2,64,0.00,,,0.00,WUHU216HW,2013-02-06 02:07:00,
2013-02-05 21:08:00,23.9,13.5,29.54,SSE,158,1.1,2.2,64,0.00,,,0.00,WUHU216HW,2013-02-06 02:08:00,
2013-02-05 21:09:00,23.9,13.5,29.53,SE,135,1.1,2.2,64,0.00,,,0.00,WUHU216HW,2013-02-06 02:09:00,
2013-02-05 21:10:00,23.9,13.5,29.53,SSE,158,1.1,2.2,64,0.00,,,0.00,WUHU216HW,2013-02-06 02:10:00,
2013-02-05 21:12:00,23.9,13.5,29.53,SSE,158,1.1,2.2,64,0.00,,,0.00,WUHU216HW,2013-02-06 02:12:00,
2013-02-05 21:13:00,23.9,13.5,29.53,SSE,158,0.4,2.2,64,0.00,,,0.00,WUHU216HW,2013-02-06 02:13:00,
2013-02-05 21:15:00,23.9,13.5,29.53,SSE,158,1.1,2.2,64,0.00,,,0.00,WUHU216HW,2013-02-06 02:15:00,
2013-02-05 21:17:00,23.9,13.5,29.53,SSE,158,2.7,2.7,64,0.00,,,0.00,WUHU216HW,2013-02-06 02:17:00,
2013-02-05 21:18:00,23.9,13.5,29.53,South,180,1.3,2.7,64,0.00,,,0.00,WUHU216HW,2013-02-06 02:18:00,
2013-02-05 21:20:00,23.9,13.5,29.53,SE,135,1.1,2.7,64,0.00,,,0.00,WUHU216HW,2013-02-06 02:20:00,
2013-02-05 21:22:00,23.9,13.5,29.53,SSE,158,1.8,2.7,64,0.00,,,0.00,WUHU216HW,2013-02-06 02:22:00,
2013-02-05 21:23:00,23.9,13.5,29.53,SSE,158,1.1,2.7,64,0.00,,,0.00,WUHU216HW,2013-02-06 02:23:00,
2013-02-05 21:25:00,24.1,13.7,29.53,SSE,158,1.1,2.7,64,0.00,,,0.00,WUHU216HW,2013-02-06 02:25:00,
2013-02-05 21:26:00,24.1,13.7,29.53,SSE,158,1.1,2.7,64,0.00,,,0.00,WUHU216HW,2013-02-06 02:26:00,
2013-02-05 21:27:00,24.1,13.7,29.53,SSE,158,0.4,1.8,64,0.00,,,0.00,WUHU216HW,2013-02-06 02:27:00,
2013-02-05 21:28:00,24.1,13.7,29.53,SSE,158,2.2,2.2,64,0.00,,,0.00,WUHU216HW,2013-02-06 02:28:00,
2013-02-05 21:30:00,24.1,13.7,29.53,SE,135,1.3,2.2,64,0.00,,,0.00,WUHU216HW,2013-02-06 02:30:00,
2013-02-05 21:31:00,24.1,13.7,29.53,SE,135,1.3,2.2,64,0.00,,,0.00,WUHU216HW,2013-02-06 02:31:00,
2013-02-05 21:33:00,24.1,13.7,29.53,SSE,158,0.7,2.2,64,0.00,,,0.00,WUHU216HW,2013-02-06 02:33:00,
2013-02-05 21:35:00,24.1,14.0,29.53,SSE,158,1.1,2.2,65,0.00,,,0.00,WUHU216HW,2013-02-06 02:35:00,
2013-02-05 21:36:00,24.1,14.0,29.53,SSE,158,1.1,2.2,65,0.00,,,0.00,WUHU216HW,2013-02-06 02:36:00,
2013-02-05 21:38:00,24.1,14.0,29.53,SE,135,3.4,3.4,65,0.00,,,0.00,WUHU216HW,2013-02-06 02:38:00,
2013-02-05 21:40:00,24.1,14.0,29.53,SSE,158,1.1,3.4,65,0.00,,,0.00,WUHU216HW,2013-02-06 02:40:00,
2013-02-05 21:41:00,24.1,14.0,29.53,SSE,158,1.1,3.4,65,0.00,,,0.00,WUHU216HW,2013-02-06 02:41:00,
2013-02-05 21:43:00,24.1,14.0,29.53,SSE,158,2.7,3.4,65,0.00,,,0.00,WUHU216HW,2013-02-06 02:43:00,
2013-02-05 21:45:00,24.1,14.3,29.53,South,180,2.5,4.0,66,0.00,,,0.00,WUHU216HW,2013-02-06 02:45:00,
2013-02-05 21:46:00,24.1,14.3,29.53,South,180,4.5,4.5,66,0.00,,,0.00,WUHU216HW,2013-02-06 02:46:00,
2013-02-05 21:48:00,24.1,14.3,29.53,SSE,158,1.8,4.5,66,0.00,,,0.00,WUHU216HW,2013-02-06 02:48:00,
2013-02-05 21:50:00,24.1,14.3,29.53,South,180,3.6,4.5,66,0.00,,,0.00,WUHU216HW,2013-02-06 02:50:00,
2013-02-05 21:51:00,24.1,14.3,29.53,SSE,158,1.8,4.5,66,0.00,,,0.00,WUHU216HW,2013-02-06 02:51:00,
2013-02-05 21:53:00,24.1,14.3,29.53,SSE,158,2.7,4.5,66,0.00,,,0.00,WUHU216HW,2013-02-06 02:53:00,
2013-02-05 21:54:00,24.1,14.3,29.53,SSE,158,2.7,4.5,66,0.00,,,0.00,WUHU216HW,2013-02-06 02:54:00,
2013-02-05 21:55:00,24.1,14.3,29.53,South,180,2.5,4.5,66,0.00,,,0.00,WUHU216HW,2013-02-06 02:55:00,
2013-02-05 21:56:00,24.1,14.3,29.53,SSW,203,2.5,3.6,66,0.00,,,0.00,WUHU216HW,2013-02-06 02:56:00,
2013-02-05 21:58:00,24.1,14.3,29.53,South,180,3.6,4.0,66,0.00,,,0.00,WUHU216HW,2013-02-06 02:58:00,
2013-02-05 21:59:00,24.1,14.3,29.53,South,180,3.6,4.0,66,0.00,,,0.00,WUHU216HW,2013-02-06 02:59:00,
2013-02-05 22:01:00,24.1,14.3,29.53,SSE,158,3.4,4.0,66,0.00,,,0.00,WUHU216HW,2013-02-06 03:01:00,
2013-02-05 22:03:00,24.3,14.9,29.53,SE,135,2.5,4.0,67,0.00,,,0.00,WUHU216HW,2013-02-06 03:03:00,
2013-02-05 22:04:00,24.3,14.9,29.53,South,180,3.4,4.0,67,0.00,,,0.00,WUHU216HW,2013-02-06 03:04:00,
2013-02-05 22:06:00,24.3,14.9,29.53,South,180,2.0,4.0,67,0.00,,,0.00,WUHU216HW,2013-02-06 03:06:00,
2013-02-05 22:07:00,24.3,14.9,29.53,SSE,158,3.4,4.0,67,0.00,,,0.00,WUHU216HW,2013-02-06 03:07:00,
2013-02-05 22:08:00,24.3,14.9,29.53,South,180,3.4,3.4,67,0.00,,,0.00,WUHU216HW,2013-02-06 03:08:00,
2013-02-05 22:09:00,24.3,14.9,29.53,South,180,2.0,3.4,67,0.00,,,0.00,WUHU216HW,2013-02-06 03:09:00,
2013-02-05 22:11:00,24.3,14.9,29.53,SSW,203,2.7,3.4,67,0.00,,,0.00,WUHU216HW,2013-02-06 03:11:00,
2013-02-05 22:12:00,24.3,14.9,29.53,SSW,203,2.5,3.4,67,0.00,,,0.00,WUHU216HW,2013-02-06 03:12:00,
2013-02-05 22:13:00,24.3,14.9,29.53,South,180,2.7,3.4,67,0.00,,,0.00,WUHU216HW,2013-02-06 03:13:00,
2013-02-05 22:14:00,24.3,14.9,29.53,SSW,203,2.2,3.4,67,0.00,,,0.00,WUHU216HW,2013-02-06 03:14:00,
2013-02-05 22:16:00,24.3,14.9,29.53,SE,135,0.9,3.4,67,0.00,,,0.00,WUHU216HW,2013-02-06 03:16:00,
2013-02-05 22:17:00,24.3,14.9,29.53,SSE,158,1.8,3.4,67,0.00,,,0.00,WUHU216HW,2013-02-06 03:17:00,
2013-02-05 22:18:00,24.3,14.9,29.53,South,180,3.4,3.4,67,0.00,,,0.00,WUHU216HW,2013-02-06 03:18:00,
2013-02-05 22:19:00,24.3,14.9,29.53,South,180,2.2,3.4,67,0.00,,,0.00,WUHU216HW,2013-02-06 03:19:00,
2013-02-05 22:21:00,24.3,14.9,29.53,South,180,2.7,3.4,67,0.00,,,0.00,WUHU216HW,2013-02-06 03:21:00,
2013-02-05 22:22:00,24.3,14.9,29.53,SSE,158,1.8,3.4,67,0.00,,,0.00,WUHU216HW,2013-02-06 03:22:00,
2013-02-05 22:24:00,24.3,14.9,29.53,SSE,158,1.1,3.4,67,0.00,,,0.00,WUHU216HW,2013-02-06 03:24:00,
2013-02-05 22:25:00,24.3,14.9,29.53,SSW,203,1.3,3.4,67,0.00,,,0.00,WUHU216HW,2013-02-06 03:25:00,
2013-02-05 22:26:00,24.3,14.9,29.53,South,180,2.2,3.4,67,0.00,,,0.00,WUHU216HW,2013-02-06 03:26:00,
2013-02-05 22:27:00,24.3,14.9,29.53,South,180,1.6,3.4,67,0.00,,,0.00,WUHU216HW,2013-02-06 03:27:00,
2013-02-05 22:29:00,24.3,14.9,29.53,South,180,3.4,3.4,67,0.00,,,0.00,WUHU216HW,2013-02-06 03:29:00,
2013-02-05 22:30:00,24.3,15.2,29.53,South,180,2.9,3.4,68,0.00,,,0.00,WUHU216HW,2013-02-06 03:30:00,
2013-02-05 22:31:00,24.3,15.2,29.53,South,180,2.5,3.4,68,0.00,,,0.00,WUHU216HW,2013-02-06 03:31:00,
2013-02-05 22:32:00,24.3,15.2,29.53,SSE,158,0.9,3.4,68,0.00,,,0.00,WUHU216HW,2013-02-06 03:32:00,
2013-02-05 22:34:00,24.3,15.2,29.53,SSW,203,1.3,3.4,68,0.00,,,0.00,WUHU216HW,2013-02-06 03:34:00,
2013-02-05 22:35:00,24.3,15.2,29.53,SSW,203,1.3,3.4,68,0.00,,,0.00,WUHU216HW,2013-02-06 03:35:00,
2013-02-05 22:36:00,24.3,15.2,29.53,South,180,1.3,3.4,68,0.00,,,0.00,WUHU216HW,2013-02-06 03:36:00,
2013-02-05 22:37:00,24.3,15.2,29.53,SSE,158,1.1,3.4,68,0.00,,,0.00,WUHU216HW,2013-02-06 03:37:00,
2013-02-05 22:39:00,24.1,15.0,29.53,SSE,158,0.7,2.5,68,0.00,,,0.00,WUHU216HW,2013-02-06 03:39:00,
2013-02-05 22:40:00,24.1,15.0,29.53,SSE,158,1.1,2.5,68,0.00,,,0.00,WUHU216HW,2013-02-06 03:40:00,
2013-02-05 22:42:00,24.1,15.0,29.53,South,180,1.8,1.8,68,0.00,,,0.00,WUHU216HW,2013-02-06 03:42:00,
2013-02-05 22:44:00,24.1,15.0,29.53,SSE,158,2.0,2.0,68,0.00,,,0.00,WUHU216HW,2013-02-06 03:44:00,
2013-02-05 22:45:00,24.1,15.4,29.53,SSE,158,1.1,2.0,69,0.00,,,0.00,WUHU216HW,2013-02-06 03:45:00,
2013-02-05 22:47:00,24.1,15.4,29.53,SSW,203,1.1,2.0,69,0.00,,,0.00,WUHU216HW,2013-02-06 03:47:00,
2013-02-05 22:49:00,24.1,15.0,29.53,SSW,203,2.0,2.5,68,0.00,,,0.00,WUHU216HW,2013-02-06 03:49:00,
2013-02-05 22:51:00,24.3,15.2,29.53,SSE,158,1.1,2.5,68,0.00,,,0.00,WUHU216HW,2013-02-06 03:51:00,
2013-02-05 22:52:00,24.1,15.0,29.53,South,180,1.6,2.5,68,0.00,,,0.00,WUHU216HW,2013-02-06 03:52:00,
2013-02-05 22:55:00,24.3,15.6,29.53,SSW,203,1.8,3.6,69,0.00,,,0.00,WUHU216HW,2013-02-06 03:55:00,
2013-02-05 22:56:00,24.1,15.4,29.53,SSE,158,2.5,3.6,69,0.00,,,0.00,WUHU216HW,2013-02-06 03:56:00,
2013-02-05 22:57:00,24.3,15.6,29.53,SSE,158,1.8,3.6,69,0.00,,,0.00,WUHU216HW,2013-02-06 03:57:00,
2013-02-05 23:00:00,24.1,15.4,29.53,South,180,1.3,3.6,69,0.00,,,0.00,WUHU216HW,2013-02-06 04:00:00,
2013-02-05 23:01:00,24.3,15.6,29.53,SSE,158,2.5,3.6,69,0.00,,,0.00,WUHU216HW,2013-02-06 04:01:00,
2013-02-05 23:02:00,24.3,15.6,29.53,South,180,2.7,3.6,69,0.00,,,0.00,WUHU216HW,2013-02-06 04:02:00,
2013-02-05 23:05:00,24.1,15.4,29.53,South,180,3.8,4.3,69,0.00,,,0.00,WUHU216HW,2013-02-06 04:05:00,
2013-02-05 23:06:00,24.1,15.4,29.53,SSW,203,2.7,4.3,69,0.00,,,0.00,WUHU216HW,2013-02-06 04:06:00,
2013-02-05 23:07:00,24.1,15.4,29.53,SSW,203,2.5,4.3,69,0.00,,,0.00,WUHU216HW,2013-02-06 04:07:00,
2013-02-05 23:08:00,24.1,15.4,29.53,SSW,203,2.9,4.3,69,0.00,,,0.00,WUHU216HW,2013-02-06 04:08:00,
2013-02-05 23:10:00,24.3,15.9,29.53,South,180,4.0,4.3,70,0.00,,,0.00,WUHU216HW,2013-02-06 04:10:00,
2013-02-05 23:11:00,24.3,15.9,29.53,South,180,1.8,4.3,70,0.00,,,0.00,WUHU216HW,2013-02-06 04:11:00,
2013-02-05 23:12:00,24.3,15.9,29.53,SSW,203,2.7,4.3,70,0.00,,,0.00,WUHU216HW,2013-02-06 04:12:00,
2013-02-05 23:13:00,24.3,15.9,29.53,SSW,203,1.8,4.0,70,0.00,,,0.00,WUHU216HW,2013-02-06 04:13:00,
2013-02-05 23:15:00,24.3,16.2,29.53,SSE,158,3.6,4.0,71,0.00,,,0.00,WUHU216HW,2013-02-06 04:15:00,
2013-02-05 23:16:00,24.3,16.2,29.53,SE,135,3.4,4.0,71,0.00,,,0.00,WUHU216HW,2013-02-06 04:16:00,
2013-02-05 23:18:00,24.3,16.2,29.53,South,180,4.3,4.3,71,0.00,,,0.00,WUHU216HW,2013-02-06 04:18:00,
2013-02-05 23:20:00,24.5,16.8,29.53,SSW,203,4.3,6.7,72,0.00,,,0.00,WUHU216HW,2013-02-06 04:20:00,
2013-02-05 23:21:00,24.5,16.8,29.53,SSW,203,4.5,6.7,72,0.00,,,0.00,WUHU216HW,2013-02-06 04:21:00,
2013-02-05 23:23:00,24.5,16.8,29.53,SSW,203,3.4,6.7,72,0.00,,,0.00,WUHU216HW,2013-02-06 04:23:00,
2013-02-05 23:25:00,24.5,16.8,29.53,SSE,158,4.0,6.7,72,0.00,,,0.00,WUHU216HW,2013-02-06 04:25:00,
2013-02-05 23:26:00,24.5,17.0,29.53,South,180,4.7,6.7,73,0.00,,,0.00,WUHU216HW,2013-02-06 04:26:00,
2013-02-05 23:28:00,24.5,16.8,29.53,South,180,2.0,6.7,72,0.00,,,0.00,WUHU216HW,2013-02-06 04:28:00,
2013-02-05 23:30:00,24.7,17.2,29.53,South,180,4.7,4.7,73,0.00,,,0.00,WUHU216HW,2013-02-06 04:30:00,
2013-02-05 23:32:00,24.7,17.6,29.53,SE,135,4.0,4.7,74,0.00,,,0.00,WUHU216HW,2013-02-06 04:32:00,
2013-02-05 23:33:00,24.7,17.6,29.53,SE,135,4.0,4.7,74,0.00,,,0.00,WUHU216HW,2013-02-06 04:33:00,
2013-02-05 23:35:00,24.7,17.6,29.53,SSW,203,4.0,4.7,74,0.00,,,0.00,WUHU216HW,2013-02-06 04:35:00,
2013-02-05 23:37:00,24.8,17.6,29.53,SSE,158,3.4,4.7,74,0.00,,,0.00,WUHU216HW,2013-02-06 04:37:00,
2013-02-05 23:38:00,24.7,17.6,29.53,SSE,158,2.9,4.7,74,0.00,,,0.00,WUHU216HW,2013-02-06 04:38:00,
2013-02-05 23:40:00,24.8,17.6,29.53,SSW,203,3.4,5.1,74,0.00,,,0.00,WUHU216HW,2013-02-06 04:40:00,
2013-02-05 23:42:00,24.8,18.0,29.53,SSW,203,2.0,5.1,75,0.00,,,0.00,WUHU216HW,2013-02-06 04:42:00,
2013-02-05 23:43:00,24.8,18.0,29.53,South,180,3.1,5.1,75,0.00,,,0.00,WUHU216HW,2013-02-06 04:43:00,
2013-02-05 23:45:00,24.8,17.6,29.53,SSE,158,3.6,5.1,74,0.00,,,0.00,WUHU216HW,2013-02-06 04:45:00,
2013-02-05 23:47:00,24.8,18.0,29.53,SSW,203,2.9,5.1,75,0.00,,,0.00,WUHU216HW,2013-02-06 04:47:00,
2013-02-05 23:48:00,24.8,18.0,29.53,SSE,158,1.8,5.1,75,0.00,,,0.00,WUHU216HW,2013-02-06 04:48:00,
2013-02-05 23:50:00,24.7,17.6,29.53,South,180,2.5,4.0,74,0.00,,,0.00,WUHU216HW,2013-02-06 04:50:00,
2013-02-05 23:52:00,24.7,17.6,29.53,SSW,203,2.9,3.6,74,0.00,,,0.00,WUHU216HW,2013-02-06 04:52:00,
2013-02-05 23:53:00,24.7,17.6,29.53,South,180,4.7,4.7,74,0.00,,,0.00,WUHU216HW,2013-02-06 04:53:00,
2013-02-05 23:55:00,24.5,17.4,29.53,SE,135,2.2,4.7,74,0.00,,,0.00,WUHU216HW,2013-02-06 04:55:00,
2013-02-05 23:57:00,24.5,17.6,29.53,South,180,3.8,4.7,75,0.00,,,0.00,WUHU216HW,2013-02-06 04:57:00,
2013-02-05 23:58:00,24.5,17.6,29.53,SSE,158,4.0,4.7,75,0.00,,,0.00,WUHU216HW,2013-02-06 04:58:00,